Wetterdaten: Sonntag, 11.04.2010
Datum Zeit Temp. Innen Temp. Aussen UV X Diff Temp. Feuchte Inne Feuchte Auss Sonnenschein Luftdruck Regen ab 0,1 Wind Sonnenschein Windben
11.04.2010 00:00 15,9 C 5,4 C 0,0 UV-I 0,0 C 48 % 78 % 0 % 1029,0 hPa 0,0 l/m 0,0 km/h (0 Bft) 0 min 0,0 km/h (0 Bft)
11.04.2010 00:02 15,9 C 5,3 C 0,0 UV-I 0,0 C 48 % 78 % 0 % 1029,0 hPa 0,0 l/m 0,0 km/h (0 Bft) 0 min 0,0 km/h (0 Bft)
11.04.2010 00:04 16,0 C 5,3 C 0,0 UV-I 0,0 C 48 % 78 % 0 % 1029,0 hPa 0,0 l/m 0,0 km/h (0 Bft) 0 min 0,0 km/h (0 Bft)
11.04.2010 00:06 16,0 C 5,2 C 0,0 UV-I 0,0 C 48 % 78 % 0 % 1029,0 hPa 0,0 l/m 0,0 km/h (0 Bft) 0 min 0,0 km/h (0 Bft)
11.04.2010 00:08 16,0 C 5,2 C 0,0 UV-I 0,0 C 48 % 78 % 0 % 1029,0 hPa 0,0 l/m 0,0 km/h (0 Bft) 0 min 0,0 km/h (0 Bft)
11.04.2010 00:10 16,0 C 5,3 C 0,0 UV-I 0,0 C 48 % 78 % 0 % 1029,0 hPa 0,0 l/m 0,0 km/h (0 Bft) 0 min 0,0 km/h (0 Bft)
11.04.2010 00:12 16,0 C 5,2 C 0,0 UV-I 0,0 C 48 % 78 % 0 % 1028,9 hPa 0,0 l/m 0,0 km/h (0 Bft) 0 min 0,0 km/h (0 Bft)
11.04.2010 00:14 16,0 C 5,1 C 0,0 UV-I 0,0 C 48 % 78 % 0 % 1028,9 hPa 0,0 l/m 0,0 km/h (0 Bft) 0 min 0,0 km/h (0 Bft)
11.04.2010 00:18 16,0 C 5,1 C 0,0 UV-I 0,0 C 48 % 78 % 0 % 1028,9 hPa 0,0 l/m 0,0 km/h (0 Bft) 0 min 4,0 km/h (1 Bft)
11.04.2010 00:20 16,0 C 5,1 C 0,0 UV-I 0,0 C 48 % 78 % 0 % 1028,9 hPa 0,0 l/m 0,0 km/h (0 Bft) 0 min 0,0 km/h (0 Bft)
11.04.2010 00:22 16,0 C 5,1 C 0,0 UV-I 0,0 C 48 % 78 % 0 % 1028,9 hPa 0,0 l/m 0,0 km/h (0 Bft) 0 min 0,0 km/h (0 Bft)
11.04.2010 00:24 16,0 C 5,0 C 0,0 UV-I 0,0 C 48 % 78 % 0 % 1028,9 hPa 0,0 l/m 0,0 km/h (0 Bft) 0 min 0,0 km/h (0 Bft)
11.04.2010 00:26 16,0 C 5,1 C 0,0 UV-I 0,0 C 48 % 78 % 0 % 1028,9 hPa 0,0 l/m 0,0 km/h (0 Bft) 0 min 0,0 km/h (0 Bft)
11.04.2010 00:28 16,0 C 5,1 C 0,0 UV-I 0,0 C 48 % 78 % 0 % 1028,9 hPa 0,0 l/m 0,0 km/h (0 Bft) 0 min 0,0 km/h (0 Bft)
11.04.2010 00:30 16,0 C 5,1 C 0,0 UV-I 0,0 C 48 % 78 % 0 % 1028,9 hPa 0,0 l/m 0,0 km/h (0 Bft) 0 min 0,0 km/h (0 Bft)
11.04.2010 00:32 16,0 C 5,1 C 0,0 UV-I 0,0 C 48 % 78 % 0 % 1029,2 hPa 0,0 l/m 0,4 km/h (0 Bft) 0 min 4,8 km/h (1 Bft)
11.04.2010 00:36 16,0 C 5,0 C 0,0 UV-I 0,0 C 48 % 78 % 0 % 1029,2 hPa 0,0 l/m 0,8 km/h (0 Bft) 0 min 0,0 km/h (0 Bft)
11.04.2010 00:40 15,8 C 4,9 C 0,0 UV-I 0,0 C 48 % 78 % 0 % 1029,2 hPa 0,0 l/m 0,8 km/h (0 Bft) 0 min 4,8 km/h (1 Bft)
11.04.2010 00:44 15,8 C 4,9 C 0,0 UV-I 0,0 C 48 % 79 % 0 % 1029,2 hPa 0,0 l/m 1,6 km/h (1 Bft) 0 min 6,8 km/h (2 Bft)
11.04.2010 00:46 15,8 C 4,9 C 0,0 UV-I 0,0 C 48 % 79 % 0 % 1029,2 hPa 0,0 l/m 2,0 km/h (1 Bft) 0 min 4,0 km/h (1 Bft)
11.04.2010 00:52 15,8 C 4,9 C 0,0 UV-I 0,0 C 48 % 79 % 0 % 1029,2 hPa 0,0 l/m 2,8 km/h (1 Bft) 0 min 6,8 km/h (2 Bft)
11.04.2010 00:54 15,9 C 4,9 C 0,0 UV-I 0,0 C 48 % 79 % 0 % 1029,2 hPa 0,0 l/m 2,8 km/h (1 Bft) 0 min 6,4 km/h (2 Bft)
11.04.2010 00:56 15,8 C 4,8 C 0,0 UV-I 0,0 C 48 % 79 % 0 % 1029,2 hPa 0,0 l/m 3,2 km/h (1 Bft) 0 min 6,8 km/h (2 Bft)
11.04.2010 00:58 15,9 C 4,8 C 0,0 UV-I 0,0 C 48 % 79 % 0 % 1029,2 hPa 0,0 l/m 4,0 km/h (1 Bft) 0 min 4,4 km/h (1 Bft)
11.04.2010 01:06 15,9 C 4,8 C 0,0 UV-I 0,0 C 48 % 79 % 0 % 1029,2 hPa 0,0 l/m 6,0 km/h (2 Bft) 0 min 10,0 km/h (2 Bft)
11.04.2010 01:10 15,9 C 4,8 C 0,0 UV-I 0,0 C 48 % 79 % 0 % 1029,2 hPa 0,0 l/m 6,8 km/h (2 Bft) 0 min 8,8 km/h (2 Bft)
11.04.2010 01:12 15,9 C 4,8 C 0,0 UV-I 0,0 C 48 % 79 % 0 % 1028,7 hPa 0,0 l/m 6,4 km/h (2 Bft) 0 min 5,2 km/h (1 Bft)
11.04.2010 01:16 15,8 C 4,8 C 0,0 UV-I 0,0 C 48 % 79 % 0 % 1028,7 hPa 0,0 l/m 5,2 km/h (1 Bft) 0 min 6,0 km/h (2 Bft)
11.04.2010 01:18 15,8 C 4,8 C 0,0 UV-I 0,0 C 48 % 79 % 0 % 1028,7 hPa 0,0 l/m 5,6 km/h (1 Bft) 0 min 9,6 km/h (2 Bft)
11.04.2010 01:20 15,8 C 4,8 C 0,0 UV-I 0,0 C 48 % 79 % 0 % 1028,7 hPa 0,0 l/m 5,2 km/h (1 Bft) 0 min 5,6 km/h (1 Bft)
11.04.2010 01:22 15,8 C 4,7 C 0,0 UV-I 0,0 C 48 % 79 % 0 % 1028,7 hPa 0,0 l/m 4,8 km/h (1 Bft) 0 min 4,0 km/h (1 Bft)
11.04.2010 01:26 15,8 C 4,6 C 0,0 UV-I 0,0 C 48 % 80 % 0 % 1028,7 hPa 0,0 l/m 4,4 km/h (1 Bft) 0 min 7,2 km/h (2 Bft)
11.04.2010 01:30 15,8 C 4,7 C 0,0 UV-I 0,0 C 48 % 80 % 0 % 1028,7 hPa 0,0 l/m 4,4 km/h (1 Bft) 0 min 7,6 km/h (2 Bft)
11.04.2010 01:34 15,6 C 4,7 C 0,0 UV-I 0,0 C 48 % 80 % 0 % 1028,9 hPa 0,0 l/m 5,2 km/h (1 Bft) 0 min 6,4 km/h (2 Bft)
11.04.2010 01:36 15,6 C 4,6 C 0,0 UV-I 0,0 C 48 % 80 % 0 % 1028,9 hPa 0,0 l/m 5,2 km/h (1 Bft) 0 min 7,6 km/h (2 Bft)
11.04.2010 01:38 15,6 C 4,5 C 0,0 UV-I 0,0 C 48 % 80 % 0 % 1028,9 hPa 0,0 l/m 4,8 km/h (1 Bft) 0 min 5,2 km/h (1 Bft)
11.04.2010 01:40 15,7 C 4,5 C 0,0 UV-I 0,0 C 48 % 80 % 0 % 1028,9 hPa 0,0 l/m 4,4 km/h (1 Bft) 0 min 6,8 km/h (2 Bft)
11.04.2010 01:48 15,6 C 4,4 C 0,0 UV-I 0,0 C 48 % 80 % 0 % 1028,9 hPa 0,0 l/m 4,4 km/h (1 Bft) 0 min 6,0 km/h (2 Bft)
11.04.2010 01:50 15,6 C 4,4 C 0,0 UV-I 0,0 C 48 % 80 % 0 % 1028,9 hPa 0,0 l/m 4,8 km/h (1 Bft) 0 min 6,0 km/h (2 Bft)
11.04.2010 01:52 15,6 C 4,4 C 0,0 UV-I 0,0 C 48 % 80 % 0 % 1029,1 hPa 0,0 l/m 4,8 km/h (1 Bft) 0 min 5,2 km/h (1 Bft)
11.04.2010 01:54 15,6 C 4,4 C 0,0 UV-I 0,0 C 49 % 80 % 0 % 1029,1 hPa 0,0 l/m 4,4 km/h (1 Bft) 0 min 5,6 km/h (1 Bft)
11.04.2010 01:56 15,6 C 4,4 C 0,0 UV-I 0,0 C 48 % 80 % 0 % 1029,1 hPa 0,0 l/m 4,4 km/h (1 Bft) 0 min 7,2 km/h (2 Bft)
11.04.2010 02:00 15,6 C 4,4 C 0,0 UV-I 0,0 C 49 % 80 % 0 % 1029,1 hPa 0,0 l/m 4,8 km/h (1 Bft) 0 min 6,8 km/h (2 Bft)
11.04.2010 02:06 15,6 C 4,4 C 0,0 UV-I 0,0 C 49 % 81 % 0 % 1029,1 hPa 0,0 l/m 5,2 km/h (1 Bft) 0 min 6,4 km/h (2 Bft)
11.04.2010 02:08 15,6 C 4,3 C 0,0 UV-I 0,0 C 49 % 81 % 0 % 1029,1 hPa 0,0 l/m 5,6 km/h (1 Bft) 0 min 6,8 km/h (2 Bft)
11.04.2010 02:10 15,6 C 4,3 C 0,0 UV-I 0,0 C 49 % 81 % 0 % 1029,1 hPa 0,0 l/m 5,2 km/h (1 Bft) 0 min 0,0 km/h (0 Bft)
11.04.2010 02:12 15,6 C 4,3 C 0,0 UV-I 0,0 C 49 % 81 % 0 % 1028,8 hPa 0,0 l/m 4,4 km/h (1 Bft) 0 min 4,0 km/h (1 Bft)
11.04.2010 02:14 15,6 C 4,3 C 0,0 UV-I 0,0 C 49 % 81 % 0 % 1028,8 hPa 0,0 l/m 3,6 km/h (1 Bft) 0 min 5,2 km/h (1 Bft)
11.04.2010 02:18 15,4 C 4,3 C 0,0 UV-I 0,0 C 49 % 81 % 0 % 1028,8 hPa 0,0 l/m 1,6 km/h (1 Bft) 0 min 0,0 km/h (0 Bft)
11.04.2010 02:23 15,4 C 4,2 C 0,0 UV-I 0,0 C 49 % 81 % 0 % 1028,8 hPa 0,0 l/m 1,6 km/h (1 Bft) 0 min 7,2 km/h (2 Bft)
11.04.2010 02:28 15,5 C 4,0 C 0,0 UV-I 0,0 C 49 % 81 % 0 % 1028,8 hPa 0,0 l/m 2,4 km/h (1 Bft) 0 min 4,4 km/h (1 Bft)
11.04.2010 02:33 15,5 C 4,0 C 0,0 UV-I 0,0 C 49 % 81 % 0 % 1028,5 hPa 0,0 l/m 4,4 km/h (1 Bft) 0 min 6,4 km/h (2 Bft)
11.04.2010 02:38 15,3 C 4,0 C 0,0 UV-I 0,0 C 49 % 82 % 0 % 1028,5 hPa 0,0 l/m 4,8 km/h (1 Bft) 0 min 4,8 km/h (1 Bft)
11.04.2010 02:43 15,3 C 3,9 C 0,0 UV-I 0,0 C 49 % 82 % 0 % 1028,5 hPa 0,0 l/m 4,0 km/h (1 Bft) 0 min 4,8 km/h (1 Bft)
11.04.2010 02:48 15,4 C 3,9 C 0,0 UV-I 0,0 C 49 % 82 % 0 % 1028,5 hPa 0,0 l/m 2,0 km/h (1 Bft) 0 min 0,0 km/h (0 Bft)
11.04.2010 02:53 15,4 C 3,9 C 0,0 UV-I 0,0 C 49 % 82 % 0 % 1028,1 hPa 0,0 l/m 0,8 km/h (0 Bft) 0 min 0,0 km/h (0 Bft)
11.04.2010 02:58 15,4 C 3,7 C 0,0 UV-I 0,0 C 49 % 82 % 0 % 1028,1 hPa 0,0 l/m 0,0 km/h (0 Bft) 0 min 4,0 km/h (1 Bft)
11.04.2010 03:03 15,4 C 3,7 C 0,0 UV-I 0,0 C 49 % 82 % 0 % 1028,1 hPa 0,0 l/m 0,4 km/h (0 Bft) 0 min 0,0 km/h (0 Bft)
11.04.2010 03:08 15,4 C 3,6 C 0,0 UV-I 0,0 C 49 % 83 % 0 % 1028,1 hPa 0,0 l/m 0,4 km/h (0 Bft) 0 min 0,0 km/h (0 Bft)
11.04.2010 03:13 15,4 C 3,6 C 0,0 UV-I 0,0 C 49 % 83 % 0 % 1028,0 hPa 0,0 l/m 0,8 km/h (0 Bft) 0 min 0,0 km/h (0 Bft)
11.04.2010 03:18 15,2 C 3,6 C 0,0 UV-I 0,0 C 49 % 83 % 0 % 1028,0 hPa 0,0 l/m 2,0 km/h (1 Bft) 0 min 6,8 km/h (2 Bft)
11.04.2010 03:23 15,2 C 3,5 C 0,0 UV-I 0,0 C 49 % 83 % 0 % 1028,0 hPa 0,0 l/m 3,2 km/h (1 Bft) 0 min 7,6 km/h (2 Bft)
11.04.2010 03:28 15,2 C 3,5 C 0,0 UV-I 0,0 C 49 % 84 % 0 % 1028,0 hPa 0,0 l/m 3,6 km/h (1 Bft) 0 min 5,2 km/h (1 Bft)
11.04.2010 03:33 15,2 C 3,4 C 0,0 UV-I 0,0 C 49 % 83 % 0 % 1027,9 hPa 0,0 l/m 2,4 km/h (1 Bft) 0 min 0,0 km/h (0 Bft)
11.04.2010 03:38 15,3 C 3,5 C 0,0 UV-I 0,0 C 49 % 84 % 0 % 1027,9 hPa 0,0 l/m 1,2 km/h (1 Bft) 0 min 0,0 km/h (0 Bft)
11.04.2010 03:43 15,3 C 3,5 C 0,0 UV-I 0,0 C 49 % 84 % 0 % 1027,9 hPa 0,0 l/m 1,6 km/h (1 Bft) 0 min 6,8 km/h (2 Bft)
11.04.2010 03:48 15,1 C 3,5 C 0,0 UV-I 0,0 C 49 % 84 % 0 % 1027,9 hPa 0,0 l/m 2,0 km/h (1 Bft) 0 min 0,0 km/h (0 Bft)
11.04.2010 03:53 15,1 C 3,4 C 0,0 UV-I 0,0 C 49 % 84 % 0 % 1028,0 hPa 0,0 l/m 2,0 km/h (1 Bft) 0 min 0,0 km/h (0 Bft)
11.04.2010 03:58 15,1 C 3,3 C 0,0 UV-I 0,0 C 49 % 84 % 0 % 1028,0 hPa 0,0 l/m 0,8 km/h (0 Bft) 0 min 0,0 km/h (0 Bft)
11.04.2010 04:03 15,1 C 3,3 C 0,0 UV-I 0,0 C 49 % 85 % 0 % 1028,0 hPa 0,0 l/m 0,4 km/h (0 Bft) 0 min 4,4 km/h (1 Bft)
11.04.2010 04:08 15,2 C 3,2 C 0,0 UV-I 0,0 C 49 % 85 % 0 % 1028,0 hPa 0,0 l/m 0,8 km/h (0 Bft) 0 min 0,0 km/h (0 Bft)
11.04.2010 04:13 15,2 C 3,2 C 0,0 UV-I 0,0 C 49 % 85 % 0 % 1027,4 hPa 0,0 l/m 0,8 km/h (0 Bft) 0 min 4,0 km/h (1 Bft)
11.04.2010 04:18 15,2 C 3,2 C 0,0 UV-I 0,0 C 49 % 85 % 0 % 1027,4 hPa 0,0 l/m 0,4 km/h (0 Bft) 0 min 6,0 km/h (2 Bft)
11.04.2010 04:19 15,2 C 3,2 C 0,0 UV-I 0,0 C 49 % 85 % 0 % 1027,4 hPa 0,0 l/m 0,4 km/h (0 Bft) 0 min 6,0 km/h (2 Bft)
11.04.2010 04:20 15,2 C 3,2 C 0,0 UV-I 0,0 C 49 % 85 % 0 % 1027,4 hPa 0,0 l/m 0,4 km/h (0 Bft) 0 min 6,0 km/h (2 Bft)
11.04.2010 04:22 15,2 C 3,2 C 0,0 UV-I 0,0 C 49 % 85 % 0 % 1027,4 hPa 0,0 l/m 1,2 km/h (1 Bft) 0 min 0,0 km/h (0 Bft)
11.04.2010 04:24 15,2 C 3,2 C 0,0 UV-I 0,0 C 49 % 85 % 0 % 1027,4 hPa 0,0 l/m 1,2 km/h (1 Bft) 0 min 4,0 km/h (1 Bft)
11.04.2010 04:26 15,2 C 3,1 C 0,0 UV-I 0,0 C 49 % 85 % 0 % 1027,4 hPa 0,0 l/m 1,2 km/h (1 Bft) 0 min 0,0 km/h (0 Bft)
11.04.2010 04:28 15,2 C 3,0 C 0,0 UV-I 0,0 C 49 % 85 % 0 % 1027,4 hPa 0,0 l/m 1,2 km/h (1 Bft) 0 min 0,0 km/h (0 Bft)
11.04.2010 04:30 15,2 C 3,0 C 0,0 UV-I 0,0 C 49 % 85 % 0 % 1027,4 hPa 0,0 l/m 1,2 km/h (1 Bft) 0 min 0,0 km/h (0 Bft)
11.04.2010 04:32 15,2 C 3,1 C 0,0 UV-I 0,0 C 49 % 85 % 0 % 1027,2 hPa 0,0 l/m 0,8 km/h (0 Bft) 0 min 5,6 km/h (1 Bft)
11.04.2010 04:34 15,2 C 3,0 C 0,0 UV-I 0,0 C 49 % 85 % 0 % 1027,2 hPa 0,0 l/m 0,8 km/h (0 Bft) 0 min 0,0 km/h (0 Bft)
11.04.2010 04:36 15,2 C 3,0 C 0,0 UV-I 0,0 C 49 % 85 % 0 % 1027,2 hPa 0,0 l/m 1,2 km/h (1 Bft) 0 min 4,0 km/h (1 Bft)
11.04.2010 04:38 15,2 C 2,9 C 0,0 UV-I 0,0 C 49 % 85 % 0 % 1027,2 hPa 0,0 l/m 1,2 km/h (1 Bft) 0 min 0,0 km/h (0 Bft)
11.04.2010 04:40 15,1 C 2,9 C 0,0 UV-I 0,0 C 49 % 85 % 0 % 1027,2 hPa 0,0 l/m 1,2 km/h (1 Bft) 0 min 5,6 km/h (1 Bft)
11.04.2010 04:42 15,1 C 2,9 C 0,0 UV-I 0,0 C 49 % 85 % 0 % 1027,2 hPa 0,0 l/m 1,2 km/h (1 Bft) 0 min 0,0 km/h (0 Bft)
11.04.2010 04:44 15,1 C 2,9 C 0,0 UV-I 0,0 C 49 % 85 % 0 % 1027,2 hPa 0,0 l/m 1,2 km/h (1 Bft) 0 min 0,0 km/h (0 Bft)
11.04.2010 04:46 15,1 C 2,9 C 0,0 UV-I 0,0 C 49 % 86 % 0 % 1027,2 hPa 0,0 l/m 0,8 km/h (0 Bft) 0 min 0,0 km/h (0 Bft)
11.04.2010 04:48 15,1 C 2,8 C 0,0 UV-I 0,0 C 49 % 86 % 0 % 1027,2 hPa 0,0 l/m 0,8 km/h (0 Bft) 0 min 0,0 km/h (0 Bft)
11.04.2010 04:50 15,1 C 2,8 C 0,0 UV-I 0,0 C 49 % 86 % 0 % 1027,2 hPa 0,0 l/m 1,2 km/h (1 Bft) 0 min 0,0 km/h (0 Bft)
11.04.2010 04:52 15,1 C 2,9 C 0,0 UV-I 0,0 C 49 % 86 % 0 % 1027,2 hPa 0,0 l/m 0,8 km/h (0 Bft) 0 min 0,0 km/h (0 Bft)
11.04.2010 04:54 15,1 C 2,8 C 0,0 UV-I 0,0 C 49 % 86 % 0 % 1027,2 hPa 0,0 l/m 0,4 km/h (0 Bft) 0 min 0,0 km/h (0 Bft)
11.04.2010 04:56 15,1 C 2,8 C 0,0 UV-I 0,0 C 49 % 86 % 0 % 1027,2 hPa 0,0 l/m 0,4 km/h (0 Bft) 0 min 0,0 km/h (0 Bft)
11.04.2010 04:58 15,1 C 2,7 C 0,0 UV-I 0,0 C 49 % 85 % 0 % 1027,2 hPa 0,0 l/m 0,4 km/h (0 Bft) 0 min 0,0 km/h (0 Bft)
11.04.2010 05:00 15,1 C 2,7 C 0,0 UV-I 0,0 C 49 % 85 % 0 % 1027,2 hPa 0,0 l/m 0,0 km/h (0 Bft) 0 min 0,0 km/h (0 Bft)
11.04.2010 05:02 15,1 C 2,6 C 0,0 UV-I 0,0 C 49 % 86 % 0 % 1027,2 hPa 0,0 l/m 0,0 km/h (0 Bft) 0 min 0,0 km/h (0 Bft)
11.04.2010 05:04 15,1 C 2,6 C 0,0 UV-I 0,0 C 49 % 86 % 0 % 1027,2 hPa 0,0 l/m 0,0 km/h (0 Bft) 0 min 0,0 km/h (0 Bft)
11.04.2010 05:06 15,1 C 2,7 C 0,0 UV-I 0,0 C 49 % 86 % 0 % 1027,2 hPa 0,0 l/m 0,0 km/h (0 Bft) 0 min 0,0 km/h (0 Bft)
11.04.2010 05:08 14,9 C 2,7 C 0,0 UV-I 0,0 C 49 % 86 % 0 % 1027,2 hPa 0,0 l/m 0,0 km/h (0 Bft) 0 min 0,0 km/h (0 Bft)
11.04.2010 05:10 15,1 C 2,5 C 0,0 UV-I 0,0 C 49 % 86 % 0 % 1027,2 hPa 0,0 l/m 0,0 km/h (0 Bft) 0 min 0,0 km/h (0 Bft)
11.04.2010 05:12 15,1 C 2,5 C 0,0 UV-I 0,0 C 49 % 86 % 0 % 1027,1 hPa 0,0 l/m 0,0 km/h (0 Bft) 0 min 0,0 km/h (0 Bft)
11.04.2010 05:14 14,9 C 2,4 C 0,0 UV-I 0,0 C 49 % 86 % 0 % 1027,1 hPa 0,0 l/m 0,0 km/h (0 Bft) 0 min 0,0 km/h (0 Bft)
11.04.2010 05:16 14,9 C 2,4 C 0,0 UV-I 0,0 C 49 % 86 % 0 % 1027,1 hPa 0,0 l/m 0,0 km/h (0 Bft) 0 min 0,0 km/h (0 Bft)
11.04.2010 05:18 14,9 C 2,4 C 0,0 UV-I 0,0 C 49 % 86 % 0 % 1027,1 hPa 0,0 l/m 0,0 km/h (0 Bft) 0 min 0,0 km/h (0 Bft)
11.04.2010 05:20 14,9 C 2,3 C 0,0 UV-I 0,0 C 49 % 86 % 0 % 1027,1 hPa 0,0 l/m 0,0 km/h (0 Bft) 0 min 0,0 km/h (0 Bft)
11.04.2010 05:22 14,9 C 2,3 C 0,0 UV-I 0,0 C 49 % 86 % 0 % 1027,1 hPa 0,0 l/m 0,0 km/h (0 Bft) 0 min 0,0 km/h (0 Bft)
11.04.2010 05:24 15,0 C 2,3 C 0,0 UV-I 0,0 C 49 % 86 % 0 % 1027,1 hPa 0,0 l/m 0,0 km/h (0 Bft) 0 min 0,0 km/h (0 Bft)
11.04.2010 05:26 15,0 C 2,2 C 0,0 UV-I 0,0 C 49 % 86 % 0 % 1027,1 hPa 0,0 l/m 0,0 km/h (0 Bft) 0 min 0,0 km/h (0 Bft)
11.04.2010 05:28 15,0 C 2,2 C 0,0 UV-I 0,0 C 49 % 86 % 0 % 1027,1 hPa 0,0 l/m 0,0 km/h (0 Bft) 0 min 0,0 km/h (0 Bft)
11.04.2010 05:30 15,0 C 2,3 C 0,0 UV-I 0,0 C 49 % 86 % 0 % 1027,1 hPa 0,0 l/m 0,0 km/h (0 Bft) 0 min 0,0 km/h (0 Bft)
11.04.2010 05:32 15,0 C 2,3 C 0,0 UV-I 0,0 C 49 % 86 % 0 % 1026,8 hPa 0,0 l/m 0,0 km/h (0 Bft) 0 min 0,0 km/h (0 Bft)
11.04.2010 05:34 15,0 C 2,3 C 0,0 UV-I 0,0 C 49 % 86 % 0 % 1026,8 hPa 0,0 l/m 0,0 km/h (0 Bft) 0 min 0,0 km/h (0 Bft)
11.04.2010 05:36 15,0 C 2,3 C 0,0 UV-I 0,0 C 49 % 86 % 0 % 1026,8 hPa 0,0 l/m 0,0 km/h (0 Bft) 0 min 0,0 km/h (0 Bft)
11.04.2010 05:38 15,0 C 2,3 C 0,0 UV-I 0,0 C 49 % 86 % 0 % 1026,8 hPa 0,0 l/m 0,4 km/h (0 Bft) 0 min 0,0 km/h (0 Bft)
11.04.2010 05:40 15,0 C 2,2 C 0,0 UV-I 0,0 C 49 % 87 % 0 % 1026,8 hPa 0,0 l/m 0,8 km/h (0 Bft) 0 min 4,4 km/h (1 Bft)
11.04.2010 05:42 15,0 C 2,2 C 0,0 UV-I 0,0 C 49 % 87 % 0 % 1026,8 hPa 0,0 l/m 1,2 km/h (1 Bft) 0 min 4,8 km/h (1 Bft)
11.04.2010 05:44 15,0 C 2,2 C 0,0 UV-I 0,0 C 49 % 87 % 0 % 1026,8 hPa 0,0 l/m 1,2 km/h (1 Bft) 0 min 0,0 km/h (0 Bft)
11.04.2010 05:46 15,0 C 2,2 C 0,0 UV-I 0,0 C 49 % 87 % 0 % 1026,8 hPa 0,0 l/m 1,6 km/h (1 Bft) 0 min 4,8 km/h (1 Bft)
11.04.2010 05:48 15,0 C 2,2 C 0,0 UV-I 0,0 C 49 % 87 % 0 % 1026,8 hPa 0,0 l/m 2,4 km/h (1 Bft) 0 min 8,0 km/h (2 Bft)
11.04.2010 05:50 15,0 C 2,1 C 0,0 UV-I 0,0 C 49 % 87 % 0 % 1026,8 hPa 0,0 l/m 2,0 km/h (1 Bft) 0 min 4,0 km/h (1 Bft)
11.04.2010 05:52 15,0 C 2,2 C 0,0 UV-I 0,0 C 49 % 87 % 0 % 1026,9 hPa 0,0 l/m 2,0 km/h (1 Bft) 0 min 5,2 km/h (1 Bft)
11.04.2010 05:54 15,0 C 2,1 C 0,0 UV-I 0,0 C 49 % 88 % 0 % 1026,9 hPa 0,0 l/m 2,0 km/h (1 Bft) 0 min 0,0 km/h (0 Bft)
11.04.2010 05:56 15,0 C 2,1 C 0,0 UV-I 0,0 C 49 % 88 % 0 % 1026,9 hPa 0,0 l/m 2,0 km/h (1 Bft) 0 min 5,2 km/h (1 Bft)
11.04.2010 05:58 15,0 C 2,1 C 0,0 UV-I 0,0 C 49 % 88 % 0 % 1026,9 hPa 0,0 l/m 2,4 km/h (1 Bft) 0 min 5,6 km/h (1 Bft)
11.04.2010 06:00 15,0 C 2,1 C 0,0 UV-I 0,0 C 49 % 88 % 0 % 1026,9 hPa 0,0 l/m 2,8 km/h (1 Bft) 0 min 6,0 km/h (2 Bft)
11.04.2010 06:02 15,0 C 2,1 C 0,0 UV-I 0,0 C 49 % 88 % 0 % 1026,9 hPa 0,0 l/m 3,6 km/h (1 Bft) 0 min 7,2 km/h (2 Bft)
11.04.2010 06:04 14,8 C 2,2 C 0,0 UV-I 0,0 C 49 % 88 % 0 % 1026,9 hPa 0,0 l/m 3,6 km/h (1 Bft) 0 min 7,2 km/h (2 Bft)
11.04.2010 06:06 15,0 C 2,1 C 0,0 UV-I 0,0 C 49 % 88 % 0 % 1026,9 hPa 0,0 l/m 3,6 km/h (1 Bft) 0 min 0,0 km/h (0 Bft)
11.04.2010 06:08 15,0 C 2,1 C 0,0 UV-I 0,0 C 49 % 88 % 0 % 1026,9 hPa 0,0 l/m 2,8 km/h (1 Bft) 0 min 0,0 km/h (0 Bft)
11.04.2010 06:10 14,8 C 2,1 C 0,0 UV-I 0,0 C 49 % 88 % 0 % 1026,9 hPa 0,0 l/m 2,4 km/h (1 Bft) 0 min 5,6 km/h (1 Bft)
11.04.2010 06:12 14,8 C 2,1 C 0,0 UV-I 0,0 C 49 % 88 % 0 % 1026,7 hPa 0,0 l/m 2,4 km/h (1 Bft) 0 min 4,8 km/h (1 Bft)
11.04.2010 06:14 14,8 C 2,1 C 0,0 UV-I 0,0 C 49 % 88 % 0 % 1026,7 hPa 0,0 l/m 2,4 km/h (1 Bft) 0 min 6,8 km/h (2 Bft)
11.04.2010 06:16 14,8 C 2,1 C 0,0 UV-I 0,0 C 49 % 88 % 0 % 1026,7 hPa 0,0 l/m 3,2 km/h (1 Bft) 0 min 6,8 km/h (2 Bft)
11.04.2010 06:18 14,8 C 2,1 C 0,0 UV-I 0,0 C 49 % 88 % 0 % 1026,7 hPa 0,0 l/m 4,4 km/h (1 Bft) 0 min 8,0 km/h (2 Bft)
11.04.2010 06:20 14,8 C 2,1 C 0,0 UV-I 0,0 C 49 % 88 % 0 % 1026,7 hPa 0,0 l/m 5,2 km/h (1 Bft) 0 min 10,4 km/h (2 Bft)
11.04.2010 06:22 14,8 C 2,1 C 0,0 UV-I 0,0 C 49 % 88 % 0 % 1026,7 hPa 0,0 l/m 5,6 km/h (1 Bft) 0 min 7,6 km/h (2 Bft)
11.04.2010 06:24 14,8 C 2,1 C 0,0 UV-I 0,0 C 49 % 88 % 0 % 1026,7 hPa 0,0 l/m 5,6 km/h (1 Bft) 0 min 6,8 km/h (2 Bft)
11.04.2010 06:26 14,8 C 2,1 C 0,0 UV-I 0,0 C 49 % 88 % 0 % 1026,7 hPa 0,0 l/m 5,6 km/h (1 Bft) 0 min 5,2 km/h (1 Bft)
11.04.2010 06:28 14,9 C 2,1 C 0,0 UV-I 0,0 C 49 % 89 % 0 % 1026,7 hPa 0,0 l/m 5,2 km/h (1 Bft) 0 min 0,0 km/h (0 Bft)
11.04.2010 06:32 14,8 C 2,1 C 0,0 UV-I 0,0 C 49 % 89 % 0 % 1026,7 hPa 0,0 l/m 4,4 km/h (1 Bft) 0 min 4,8 km/h (1 Bft)
11.04.2010 06:34 14,9 C 2,1 C 0,0 UV-I 0,0 C 49 % 89 % 0 % 1026,7 hPa 0,0 l/m 3,6 km/h (1 Bft) 0 min 4,0 km/h (1 Bft)
11.04.2010 06:36 14,9 C 2,1 C 0,0 UV-I 0,0 C 49 % 89 % 0 % 1026,7 hPa 0,0 l/m 3,6 km/h (1 Bft) 0 min 6,4 km/h (2 Bft)
11.04.2010 06:38 14,9 C 2,1 C 0,0 UV-I 0,0 C 49 % 89 % 0 % 1026,7 hPa 0,0 l/m 3,6 km/h (1 Bft) 0 min 4,4 km/h (1 Bft)
11.04.2010 06:40 14,9 C 2,1 C 0,0 UV-I 0,0 C 49 % 89 % 0 % 1026,7 hPa 0,0 l/m 4,0 km/h (1 Bft) 0 min 8,0 km/h (2 Bft)
11.04.2010 06:42 14,8 C 2,0 C 0,0 UV-I 0,0 C 49 % 89 % 0 % 1026,7 hPa 0,0 l/m 4,4 km/h (1 Bft) 0 min 6,8 km/h (2 Bft)
11.04.2010 06:44 14,8 C 2,0 C 0,0 UV-I 0,0 C 49 % 89 % 0 % 1026,7 hPa 0,0 l/m 4,8 km/h (1 Bft) 0 min 7,2 km/h (2 Bft)
11.04.2010 06:46 14,9 C 2,1 C 0,0 UV-I 0,0 C 49 % 89 % 0 % 1026,7 hPa 0,0 l/m 5,6 km/h (1 Bft) 0 min 6,0 km/h (2 Bft)
11.04.2010 06:48 14,8 C 2,1 C 0,0 UV-I 0,0 C 49 % 89 % 0 % 1026,7 hPa 0,0 l/m 5,2 km/h (1 Bft) 0 min 0,0 km/h (0 Bft)
11.04.2010 06:50 14,8 C 2,0 C 0,0 UV-I 0,0 C 49 % 89 % 0 % 1026,7 hPa 0,0 l/m 5,6 km/h (1 Bft) 0 min 9,2 km/h (2 Bft)
11.04.2010 06:52 14,8 C 2,0 C 0,0 UV-I 0,0 C 49 % 89 % 0 % 1026,9 hPa 0,0 l/m 5,6 km/h (1 Bft) 0 min 8,4 km/h (2 Bft)
11.04.2010 06:54 14,8 C 2,0 C 0,0 UV-I 0,0 C 49 % 89 % 0 % 1026,9 hPa 0,0 l/m 5,2 km/h (1 Bft) 0 min 6,0 km/h (2 Bft)
11.04.2010 06:56 14,8 C 2,1 C 0,0 UV-I 0,0 C 49 % 90 % 0 % 1026,9 hPa 0,0 l/m 5,2 km/h (1 Bft) 0 min 4,4 km/h (1 Bft)
11.04.2010 06:58 14,8 C 2,1 C 0,0 UV-I 0,0 C 49 % 90 % 0 % 1026,9 hPa 0,0 l/m 4,8 km/h (1 Bft) 0 min 5,6 km/h (1 Bft)
11.04.2010 07:00 14,8 C 2,1 C 0,0 UV-I 0,0 C 49 % 90 % 0 % 1026,9 hPa 0,0 l/m 4,8 km/h (1 Bft) 0 min 8,0 km/h (2 Bft)
11.04.2010 07:02 14,8 C 2,1 C 0,0 UV-I 0,0 C 49 % 90 % 0 % 1026,9 hPa 0,0 l/m 4,4 km/h (1 Bft) 0 min 6,8 km/h (2 Bft)
11.04.2010 07:04 14,8 C 2,0 C 0,0 UV-I 0,0 C 49 % 90 % 0 % 1026,9 hPa 0,0 l/m 4,4 km/h (1 Bft) 0 min 4,4 km/h (1 Bft)
11.04.2010 07:06 14,8 C 2,1 C 0,0 UV-I 0,0 C 49 % 90 % 0 % 1026,9 hPa 0,0 l/m 4,0 km/h (1 Bft) 0 min 4,0 km/h (1 Bft)
11.04.2010 07:08 14,8 C 2,1 C 0,0 UV-I 0,0 C 50 % 90 % 0 % 1026,9 hPa 0,0 l/m 4,0 km/h (1 Bft) 0 min 4,0 km/h (1 Bft)
11.04.2010 07:10 14,8 C 2,1 C 0,0 UV-I 0,0 C 50 % 90 % 0 % 1026,9 hPa 0,0 l/m 4,0 km/h (1 Bft) 0 min 6,8 km/h (2 Bft)
11.04.2010 07:12 14,8 C 2,0 C 0,0 UV-I 0,0 C 50 % 90 % 0 % 1026,8 hPa 0,0 l/m 4,4 km/h (1 Bft) 0 min 7,2 km/h (2 Bft)
11.04.2010 07:14 14,8 C 2,0 C 0,0 UV-I 0,0 C 50 % 90 % 0 % 1026,8 hPa 0,0 l/m 4,4 km/h (1 Bft) 0 min 8,0 km/h (2 Bft)
11.04.2010 07:18 14,8 C 2,1 C 0,0 UV-I 0,0 C 50 % 90 % 0 % 1026,8 hPa 0,0 l/m 5,6 km/h (1 Bft) 0 min 6,4 km/h (2 Bft)
11.04.2010 07:20 14,8 C 2,0 C 0,0 UV-I 0,0 C 50 % 90 % 0 % 1026,8 hPa 0,0 l/m 6,0 km/h (2 Bft) 0 min 10,8 km/h (2 Bft)
11.04.2010 07:22 14,8 C 2,0 C 0,0 UV-I 0,0 C 50 % 90 % 0 % 1026,8 hPa 0,0 l/m 6,0 km/h (2 Bft) 0 min 6,8 km/h (2 Bft)
11.04.2010 07:24 14,8 C 2,1 C 0,0 UV-I 0,0 C 50 % 91 % 0 % 1026,8 hPa 0,0 l/m 5,6 km/h (1 Bft) 0 min 7,6 km/h (2 Bft)
11.04.2010 07:26 14,8 C 2,0 C 0,0 UV-I 0,0 C 50 % 90 % 0 % 1026,8 hPa 0,0 l/m 5,6 km/h (1 Bft) 0 min 6,4 km/h (2 Bft)
11.04.2010 07:28 14,8 C 2,0 C 0,0 UV-I 0,0 C 50 % 90 % 0 % 1026,8 hPa 0,0 l/m 5,6 km/h (1 Bft) 0 min 6,8 km/h (2 Bft)
11.04.2010 07:30 14,8 C 2,0 C 0,0 UV-I 0,0 C 50 % 90 % 0 % 1026,8 hPa 0,0 l/m 5,2 km/h (1 Bft) 0 min 5,2 km/h (1 Bft)
11.04.2010 07:32 14,8 C 2,0 C 0,0 UV-I 0,0 C 50 % 90 % 0 % 1026,8 hPa 0,0 l/m 5,2 km/h (1 Bft) 0 min 6,0 km/h (2 Bft)
11.04.2010 07:34 14,8 C 2,0 C 0,0 UV-I 0,0 C 49 % 90 % 0 % 1026,8 hPa 0,0 l/m 5,2 km/h (1 Bft) 0 min 4,0 km/h (1 Bft)
11.04.2010 07:36 14,8 C 2,0 C 0,0 UV-I 0,0 C 49 % 90 % 0 % 1026,8 hPa 0,0 l/m 4,8 km/h (1 Bft) 0 min 7,2 km/h (2 Bft)
11.04.2010 07:40 14,8 C 2,0 C 0,0 UV-I 0,0 C 49 % 90 % 0 % 1026,8 hPa 0,0 l/m 4,0 km/h (1 Bft) 0 min 5,2 km/h (1 Bft)
11.04.2010 07:44 14,8 C 2,0 C 0,0 UV-I 0,0 C 50 % 90 % 0 % 1026,8 hPa 0,0 l/m 3,2 km/h (1 Bft) 0 min 6,8 km/h (2 Bft)
11.04.2010 07:46 14,8 C 2,0 C 0,0 UV-I 0,0 C 50 % 90 % 0 % 1026,8 hPa 0,0 l/m 3,2 km/h (1 Bft) 0 min 6,4 km/h (2 Bft)
11.04.2010 07:48 14,8 C 2,0 C 0,0 UV-I 0,0 C 50 % 90 % 0 % 1026,8 hPa 0,0 l/m 3,2 km/h (1 Bft) 0 min 5,6 km/h (1 Bft)
11.04.2010 07:50 14,8 C 2,0 C 0,0 UV-I 0,0 C 50 % 90 % 0 % 1026,8 hPa 0,0 l/m 2,4 km/h (1 Bft) 0 min 0,0 km/h (0 Bft)
11.04.2010 07:52 14,8 C 2,1 C 0,0 UV-I 0,0 C 50 % 91 % 0 % 1026,7 hPa 0,0 l/m 2,0 km/h (1 Bft) 0 min 0,0 km/h (0 Bft)
11.04.2010 07:54 14,6 C 2,0 C 0,0 UV-I 0,0 C 50 % 90 % 0 % 1026,7 hPa 0,0 l/m 1,6 km/h (1 Bft) 0 min 0,0 km/h (0 Bft)
11.04.2010 07:58 14,8 C 2,1 C 0,0 UV-I 0,0 C 50 % 91 % 0 % 1026,7 hPa 0,0 l/m 0,4 km/h (0 Bft) 0 min 0,0 km/h (0 Bft)
11.04.2010 08:02 14,8 C 2,1 C 0,0 UV-I 0,0 C 50 % 91 % 0 % 1026,7 hPa 0,0 l/m 0,4 km/h (0 Bft) 0 min 0,0 km/h (0 Bft)
11.04.2010 08:04 14,8 C 2,1 C 0,0 UV-I 0,0 C 50 % 91 % 0 % 1026,7 hPa 0,0 l/m 0,8 km/h (0 Bft) 0 min 4,0 km/h (1 Bft)
11.04.2010 08:06 14,8 C 2,1 C 0,0 UV-I 0,0 C 50 % 91 % 0 % 1026,7 hPa 0,0 l/m 1,2 km/h (1 Bft) 0 min 0,0 km/h (0 Bft)
11.04.2010 08:08 14,8 C 2,2 C 0,0 UV-I 0,0 C 50 % 91 % 0 % 1026,7 hPa 0,0 l/m 1,6 km/h (1 Bft) 0 min 0,0 km/h (0 Bft)
11.04.2010 08:10 14,8 C 2,1 C 0,0 UV-I 0,0 C 50 % 91 % 0 % 1026,7 hPa 0,0 l/m 2,0 km/h (1 Bft) 0 min 6,0 km/h (2 Bft)
11.04.2010 08:12 14,8 C 2,2 C 0,0 UV-I 0,0 C 50 % 91 % 0 % 1026,5 hPa 0,0 l/m 3,2 km/h (1 Bft) 0 min 6,0 km/h (2 Bft)
11.04.2010 08:14 14,6 C 2,3 C 0,0 UV-I 0,0 C 50 % 91 % 0 % 1026,5 hPa 0,0 l/m 3,2 km/h (1 Bft) 0 min 0,0 km/h (0 Bft)
11.04.2010 08:16 14,6 C 2,3 C 0,0 UV-I 0,0 C 50 % 91 % 0 % 1026,5 hPa 0,0 l/m 3,6 km/h (1 Bft) 0 min 6,8 km/h (2 Bft)
11.04.2010 08:18 14,6 C 2,3 C 0,0 UV-I 0,0 C 50 % 91 % 0 % 1026,5 hPa 0,0 l/m 4,0 km/h (1 Bft) 0 min 5,6 km/h (1 Bft)
11.04.2010 08:22 14,6 C 2,3 C 0,0 UV-I 0,0 C 50 % 91 % 0 % 1026,5 hPa 0,0 l/m 4,0 km/h (1 Bft) 0 min 6,8 km/h (2 Bft)
11.04.2010 08:24 14,6 C 2,2 C 0,0 UV-I 0,0 C 50 % 91 % 0 % 1026,5 hPa 0,0 l/m 4,0 km/h (1 Bft) 0 min 4,4 km/h (1 Bft)
11.04.2010 08:26 14,6 C 2,3 C 0,0 UV-I 0,0 C 50 % 91 % 0 % 1026,5 hPa 0,0 l/m 4,4 km/h (1 Bft) 0 min 6,4 km/h (2 Bft)
11.04.2010 08:28 14,8 C 2,3 C 0,0 UV-I 0,0 C 50 % 91 % 0 % 1026,5 hPa 0,0 l/m 4,4 km/h (1 Bft) 0 min 9,6 km/h (2 Bft)
11.04.2010 08:30 14,6 C 2,4 C 0,2 UV-I 0,0 C 50 % 91 % 0 % 1026,5 hPa 0,0 l/m 4,8 km/h (1 Bft) 0 min 8,0 km/h (2 Bft)
11.04.2010 08:32 14,6 C 2,4 C 0,2 UV-I 0,0 C 50 % 91 % 0 % 1026,8 hPa 0,0 l/m 4,8 km/h (1 Bft) 0 min 6,0 km/h (2 Bft)
11.04.2010 08:34 14,6 C 2,4 C 0,2 UV-I 0,0 C 50 % 91 % 0 % 1026,8 hPa 0,0 l/m 4,8 km/h (1 Bft) 0 min 4,8 km/h (1 Bft)
11.04.2010 08:36 14,6 C 2,4 C 0,1 UV-I 0,0 C 50 % 91 % 0 % 1026,8 hPa 0,0 l/m 4,4 km/h (1 Bft) 0 min 5,2 km/h (1 Bft)
11.04.2010 08:38 14,8 C 2,5 C 0,1 UV-I 0,0 C 50 % 91 % 0 % 1026,8 hPa 0,0 l/m 3,6 km/h (1 Bft) 0 min 0,0 km/h (0 Bft)
11.04.2010 08:42 14,8 C 2,6 C 0,2 UV-I 0,0 C 50 % 92 % 0 % 1026,8 hPa 0,0 l/m 3,2 km/h (1 Bft) 0 min 11,2 km/h (2 Bft)
11.04.2010 08:44 14,6 C 2,7 C 0,2 UV-I 0,0 C 50 % 92 % 0 % 1026,8 hPa 0,0 l/m 3,6 km/h (1 Bft) 0 min 6,4 km/h (2 Bft)
11.04.2010 08:46 14,6 C 2,7 C 0,1 UV-I 0,0 C 50 % 92 % 0 % 1026,8 hPa 0,0 l/m 4,4 km/h (1 Bft) 0 min 7,2 km/h (2 Bft)
11.04.2010 08:48 14,8 C 2,7 C 0,1 UV-I 0,0 C 50 % 92 % 0 % 1026,8 hPa 0,0 l/m 4,8 km/h (1 Bft) 0 min 9,6 km/h (2 Bft)
11.04.2010 08:50 14,6 C 2,9 C 0,3 UV-I 0,0 C 50 % 92 % 0 % 1026,8 hPa 0,0 l/m 6,0 km/h (2 Bft) 0 min 12,4 km/h (3 Bft)
11.04.2010 08:52 14,6 C 2,8 C 0,3 UV-I 0,1 C 50 % 92 % 3 % 1026,8 hPa 0,0 l/m 6,4 km/h (2 Bft) 0 min 10,8 km/h (2 Bft)
11.04.2010 08:54 14,6 C 2,8 C 0,3 UV-I 0,3 C 50 % 92 % 9 % 1026,8 hPa 0,0 l/m 6,0 km/h (2 Bft) 0 min 7,6 km/h (2 Bft)
11.04.2010 08:56 14,7 C 2,9 C 0,3 UV-I 0,3 C 50 % 92 % 9 % 1026,8 hPa 0,0 l/m 5,6 km/h (1 Bft) 0 min 7,6 km/h (2 Bft)
11.04.2010 08:58 14,8 C 2,9 C 0,3 UV-I 0,5 C 50 % 92 % 14 % 1026,8 hPa 0,0 l/m 6,0 km/h (2 Bft) 0 min 12,0 km/h (2 Bft)
11.04.2010 09:00 14,6 C 3,0 C 0,5 UV-I 0,4 C 50 % 92 % 11 % 1026,8 hPa 0,0 l/m 6,0 km/h (2 Bft) 0 min 7,2 km/h (2 Bft)
11.04.2010 09:02 14,8 C 3,1 C 0,5 UV-I 0,4 C 50 % 92 % 11 % 1026,8 hPa 0,0 l/m 6,0 km/h (2 Bft) 0 min 7,6 km/h (2 Bft)
11.04.2010 09:04 14,6 C 3,1 C 0,5 UV-I 0,6 C 50 % 92 % 17 % 1026,8 hPa 0,0 l/m 5,6 km/h (1 Bft) 0 min 5,6 km/h (1 Bft)
11.04.2010 09:06 14,6 C 3,3 C 0,5 UV-I 0,5 C 50 % 92 % 14 % 1026,8 hPa 0,0 l/m 5,6 km/h (1 Bft) 0 min 6,8 km/h (2 Bft)
11.04.2010 09:10 14,6 C 3,3 C 0,4 UV-I 0,7 C 50 % 92 % 20 % 1026,8 hPa 0,0 l/m 5,2 km/h (1 Bft) 0 min 9,2 km/h (2 Bft)
11.04.2010 09:12 14,6 C 3,3 C 0,4 UV-I 0,9 C 50 % 92 % 26 % 1026,8 hPa 0,0 l/m 4,4 km/h (1 Bft) 0 min 6,4 km/h (2 Bft)
11.04.2010 09:14 14,8 C 3,4 C 0,4 UV-I 1,0 C 50 % 92 % 29 % 1026,8 hPa 0,0 l/m 4,4 km/h (1 Bft) 0 min 6,8 km/h (2 Bft)
11.04.2010 09:16 14,8 C 3,5 C 0,5 UV-I 1,0 C 50 % 92 % 29 % 1026,8 hPa 0,0 l/m 4,8 km/h (1 Bft) 0 min 6,0 km/h (2 Bft)
11.04.2010 09:18 14,8 C 3,5 C 0,5 UV-I 1,1 C 50 % 92 % 31 % 1026,8 hPa 0,0 l/m 5,6 km/h (1 Bft) 0 min 13,7 km/h (3 Bft)
11.04.2010 09:20 14,8 C 3,5 C 0,7 UV-I 1,2 C 50 % 92 % 34 % 1026,8 hPa 0,0 l/m 6,4 km/h (2 Bft) 0 min 13,7 km/h (3 Bft)
11.04.2010 09:22 14,8 C 3,6 C 0,7 UV-I 1,2 C 50 % 92 % 34 % 1026,8 hPa 0,0 l/m 6,4 km/h (2 Bft) 0 min 9,2 km/h (2 Bft)
11.04.2010 09:26 14,8 C 3,7 C 0,8 UV-I 1,5 C 50 % 92 % 43 % 1026,8 hPa 0,0 l/m 7,2 km/h (2 Bft) 0 min 19,7 km/h (3 Bft)
11.04.2010 09:30 14,8 C 3,9 C 0,9 UV-I 1,4 C 50 % 92 % 40 % 1026,8 hPa 0,0 l/m 6,8 km/h (2 Bft) 0 min 19,7 km/h (3 Bft)
11.04.2010 09:32 14,8 C 3,9 C 0,9 UV-I 1,4 C 50 % 92 % 40 % 1026,4 hPa 0,0 l/m 7,2 km/h (2 Bft) 0 min 13,3 km/h (3 Bft)
11.04.2010 09:34 14,8 C 3,9 C 0,9 UV-I 1,3 C 50 % 92 % 37 % 1026,4 hPa 0,0 l/m 8,4 km/h (2 Bft) 0 min 7,6 km/h (2 Bft)
11.04.2010 09:36 14,8 C 4,0 C 0,9 UV-I 1,3 C 50 % 92 % 37 % 1026,4 hPa 0,0 l/m 8,8 km/h (2 Bft) 0 min 17,7 km/h (3 Bft)
11.04.2010 09:42 14,8 C 4,1 C 1,1 UV-I 1,5 C 50 % 91 % 43 % 1026,4 hPa 0,0 l/m 8,4 km/h (2 Bft) 0 min 10,8 km/h (2 Bft)
11.04.2010 09:44 14,8 C 4,3 C 1,1 UV-I 1,5 C 50 % 91 % 43 % 1026,4 hPa 0,0 l/m 8,0 km/h (2 Bft) 0 min 8,8 km/h (2 Bft)
11.04.2010 09:48 14,8 C 4,3 C 0,9 UV-I 1,7 C 50 % 91 % 49 % 1026,4 hPa 0,0 l/m 7,2 km/h (2 Bft) 0 min 10,0 km/h (2 Bft)
11.04.2010 09:50 14,8 C 4,4 C 0,9 UV-I 1,7 C 50 % 91 % 49 % 1026,4 hPa 0,0 l/m 7,6 km/h (2 Bft) 0 min 9,2 km/h (2 Bft)
11.04.2010 09:56 14,8 C 4,7 C 1,3 UV-I 1,9 C 50 % 91 % 54 % 1026,6 hPa 0,0 l/m 8,4 km/h (2 Bft) 0 min 16,1 km/h (3 Bft)
11.04.2010 09:58 14,8 C 4,6 C 1,3 UV-I 2,2 C 50 % 91 % 63 % 1026,6 hPa 0,0 l/m 8,4 km/h (2 Bft) 0 min 6,8 km/h (2 Bft)
11.04.2010 10:00 14,9 C 4,7 C 1,5 UV-I 2,4 C 50 % 91 % 69 % 1026,6 hPa 0,0 l/m 8,4 km/h (2 Bft) 0 min 10,4 km/h (2 Bft)
11.04.2010 10:02 14,8 C 4,9 C 1,5 UV-I 2,7 C 50 % 91 % 77 % 1026,6 hPa 0,0 l/m 8,4 km/h (2 Bft) 0 min 10,0 km/h (2 Bft)
11.04.2010 10:04 14,8 C 4,9 C 1,5 UV-I 3,6 C 50 % 91 % 100 % 1026,6 hPa 0,0 l/m 8,0 km/h (2 Bft) 2 min 12,8 km/h (3 Bft)
11.04.2010 10:06 14,8 C 5,1 C 2,2 UV-I 4,0 C 50 % 91 % 100 % 1026,6 hPa 0,0 l/m 8,8 km/h (2 Bft) 2 min 11,2 km/h (2 Bft)
11.04.2010 10:08 14,8 C 5,1 C 2,2 UV-I 4,5 C 50 % 90 % 100 % 1026,6 hPa 0,0 l/m 8,8 km/h (2 Bft) 2 min 4,4 km/h (1 Bft)
11.04.2010 10:12 15,0 C 5,4 C 2,9 UV-I 4,6 C 50 % 90 % 100 % 1026,2 hPa 0,0 l/m 9,6 km/h (2 Bft) 2 min 20,5 km/h (4 Bft)
11.04.2010 10:14 14,8 C 5,5 C 2,9 UV-I 4,8 C 50 % 89 % 100 % 1026,2 hPa 0,0 l/m 10,4 km/h (2 Bft) 2 min 9,6 km/h (2 Bft)
11.04.2010 10:18 15,0 C 5,6 C 3,0 UV-I 4,4 C 50 % 89 % 100 % 1026,2 hPa 0,0 l/m 10,4 km/h (2 Bft) 2 min 18,9 km/h (3 Bft)
11.04.2010 10:20 15,0 C 5,6 C 1,6 UV-I 3,9 C 50 % 89 % 100 % 1026,2 hPa 0,0 l/m 10,8 km/h (2 Bft) 2 min 30,1 km/h (5 Bft)
11.04.2010 10:22 15,0 C 5,6 C 1,6 UV-I 3,4 C 50 % 88 % 97 % 1026,2 hPa 0,0 l/m 12,0 km/h (2 Bft) 2 min 17,7 km/h (3 Bft)
11.04.2010 10:24 15,0 C 5,6 C 1,6 UV-I 3,1 C 50 % 88 % 89 % 1026,2 hPa 0,0 l/m 12,0 km/h (2 Bft) 2 min 15,7 km/h (3 Bft)
11.04.2010 10:26 15,0 C 5,8 C 2,1 UV-I 2,9 C 50 % 88 % 83 % 1026,2 hPa 0,0 l/m 11,6 km/h (2 Bft) 2 min 17,3 km/h (3 Bft)
11.04.2010 10:28 14,9 C 5,8 C 2,1 UV-I 3,3 C 50 % 88 % 94 % 1026,2 hPa 0,0 l/m 12,0 km/h (2 Bft) 2 min 6,4 km/h (2 Bft)
11.04.2010 10:36 14,9 C 6,3 C 2,5 UV-I 4,3 C 50 % 87 % 100 % 1026,6 hPa 0,0 l/m 8,0 km/h (2 Bft) 2 min 14,5 km/h (3 Bft)
11.04.2010 10:40 14,9 C 6,5 C 1,9 UV-I 4,1 C 50 % 88 % 100 % 1026,6 hPa 0,0 l/m 6,4 km/h (2 Bft) 2 min 10,8 km/h (2 Bft)
11.04.2010 10:42 15,1 C 6,5 C 1,9 UV-I 4,2 C 50 % 87 % 100 % 1026,6 hPa 0,0 l/m 6,8 km/h (2 Bft) 2 min 8,0 km/h (2 Bft)
11.04.2010 10:44 15,1 C 6,6 C 1,9 UV-I 4,1 C 50 % 86 % 100 % 1026,6 hPa 0,0 l/m 6,4 km/h (2 Bft) 2 min 8,4 km/h (2 Bft)
11.04.2010 10:46 15,1 C 6,8 C 3,1 UV-I 4,3 C 50 % 86 % 100 % 1026,6 hPa 0,0 l/m 6,8 km/h (2 Bft) 2 min 15,3 km/h (3 Bft)
11.04.2010 10:48 15,1 C 6,8 C 3,1 UV-I 4,6 C 50 % 86 % 100 % 1026,6 hPa 0,0 l/m 8,0 km/h (2 Bft) 2 min 13,3 km/h (3 Bft)
11.04.2010 10:52 15,1 C 7,1 C 2,6 UV-I 5,0 C 50 % 85 % 100 % 1026,2 hPa 0,0 l/m 8,8 km/h (2 Bft) 2 min 16,1 km/h (3 Bft)
11.04.2010 10:54 15,2 C 7,1 C 2,6 UV-I 5,5 C 50 % 84 % 100 % 1026,2 hPa 0,0 l/m 9,2 km/h (2 Bft) 2 min 14,9 km/h (3 Bft)
11.04.2010 10:56 15,2 C 7,2 C 2,2 UV-I 5,8 C 50 % 84 % 100 % 1026,2 hPa 0,0 l/m 9,6 km/h (2 Bft) 2 min 7,6 km/h (2 Bft)
11.04.2010 10:58 15,2 C 7,2 C 2,2 UV-I 6,3 C 50 % 84 % 100 % 1026,2 hPa 0,0 l/m 8,8 km/h (2 Bft) 2 min 12,4 km/h (3 Bft)
11.04.2010 11:00 15,2 C 7,5 C 4,2 UV-I 6,5 C 50 % 84 % 100 % 1026,2 hPa 0,0 l/m 8,4 km/h (2 Bft) 2 min 12,0 km/h (2 Bft)
11.04.2010 11:02 15,2 C 7,5 C 4,2 UV-I 6,9 C 50 % 83 % 100 % 1026,2 hPa 0,0 l/m 8,8 km/h (2 Bft) 2 min 12,8 km/h (3 Bft)
11.04.2010 11:04 15,2 C 7,6 C 4,2 UV-I 7,0 C 50 % 82 % 100 % 1026,2 hPa 0,0 l/m 8,4 km/h (2 Bft) 2 min 13,7 km/h (3 Bft)
11.04.2010 11:06 15,2 C 7,6 C 3,6 UV-I 7,1 C 49 % 82 % 100 % 1026,2 hPa 0,0 l/m 9,2 km/h (2 Bft) 2 min 18,1 km/h (3 Bft)
11.04.2010 11:08 15,2 C 7,7 C 3,6 UV-I 7,1 C 49 % 82 % 100 % 1026,2 hPa 0,0 l/m 9,2 km/h (2 Bft) 2 min 6,0 km/h (2 Bft)
11.04.2010 11:10 15,2 C 7,8 C 3,1 UV-I 7,1 C 50 % 82 % 100 % 1026,2 hPa 0,0 l/m 9,6 km/h (2 Bft) 2 min 12,0 km/h (2 Bft)
11.04.2010 11:12 15,1 C 8,0 C 3,1 UV-I 6,5 C 50 % 82 % 100 % 1026,4 hPa 0,0 l/m 8,4 km/h (2 Bft) 2 min 7,2 km/h (2 Bft)
11.04.2010 11:14 15,1 C 8,1 C 3,1 UV-I 6,8 C 49 % 81 % 100 % 1026,4 hPa 0,0 l/m 8,0 km/h (2 Bft) 2 min 9,2 km/h (2 Bft)
11.04.2010 11:18 15,1 C 8,4 C 5,0 UV-I 6,8 C 50 % 81 % 100 % 1026,4 hPa 0,0 l/m 5,6 km/h (1 Bft) 2 min 9,2 km/h (2 Bft)
11.04.2010 11:22 15,3 C 8,4 C 3,5 UV-I 6,6 C 49 % 79 % 100 % 1026,4 hPa 0,0 l/m 6,8 km/h (2 Bft) 2 min 15,3 km/h (3 Bft)
11.04.2010 11:24 15,3 C 8,4 C 3,5 UV-I 5,6 C 49 % 79 % 100 % 1026,4 hPa 0,0 l/m 6,8 km/h (2 Bft) 2 min 4,8 km/h (1 Bft)
11.04.2010 11:28 15,3 C 8,5 C 1,3 UV-I 4,8 C 49 % 79 % 100 % 1026,4 hPa 0,0 l/m 7,2 km/h (2 Bft) 2 min 8,8 km/h (2 Bft)
11.04.2010 11:30 15,3 C 8,7 C 3,2 UV-I 4,4 C 49 % 78 % 100 % 1026,4 hPa 0,0 l/m 7,2 km/h (2 Bft) 2 min 6,4 km/h (2 Bft)
11.04.2010 11:32 15,2 C 8,7 C 3,2 UV-I 4,6 C 49 % 77 % 100 % 1026,2 hPa 0,0 l/m 6,8 km/h (2 Bft) 2 min 14,1 km/h (3 Bft)
11.04.2010 11:34 15,2 C 8,8 C 3,2 UV-I 5,1 C 49 % 78 % 100 % 1026,2 hPa 0,0 l/m 6,4 km/h (2 Bft) 2 min 11,2 km/h (2 Bft)
11.04.2010 11:36 15,2 C 8,8 C 5,8 UV-I 5,7 C 49 % 77 % 100 % 1026,2 hPa 0,0 l/m 6,8 km/h (2 Bft) 2 min 7,2 km/h (2 Bft)
11.04.2010 11:38 15,2 C 9,1 C 5,8 UV-I 5,6 C 49 % 77 % 100 % 1026,2 hPa 0,0 l/m 7,2 km/h (2 Bft) 2 min 8,0 km/h (2 Bft)
11.04.2010 11:40 15,2 C 9,1 C 4,6 UV-I 5,6 C 49 % 76 % 100 % 1026,2 hPa 0,0 l/m 8,0 km/h (2 Bft) 2 min 14,5 km/h (3 Bft)
11.04.2010 11:42 15,4 C 9,2 C 4,6 UV-I 5,8 C 49 % 76 % 100 % 1026,2 hPa 0,0 l/m 7,6 km/h (2 Bft) 2 min 7,2 km/h (2 Bft)
11.04.2010 11:44 15,4 C 9,3 C 4,6 UV-I 6,1 C 49 % 77 % 100 % 1026,2 hPa 0,0 l/m 7,2 km/h (2 Bft) 2 min 0,0 km/h (0 Bft)
11.04.2010 11:46 15,4 C 9,5 C 6,9 UV-I 7,0 C 49 % 76 % 100 % 1026,2 hPa 0,0 l/m 6,8 km/h (2 Bft) 2 min 8,4 km/h (2 Bft)
11.04.2010 11:50 15,4 C 9,6 C 4,6 UV-I 6,9 C 49 % 76 % 100 % 1026,2 hPa 0,0 l/m 5,6 km/h (1 Bft) 2 min 8,0 km/h (2 Bft)
11.04.2010 11:54 15,4 C 9,9 C 4,6 UV-I 6,4 C 49 % 75 % 100 % 1026,1 hPa 0,0 l/m 4,0 km/h (1 Bft) 2 min 16,1 km/h (3 Bft)
11.04.2010 11:56 15,3 C 9,9 C 4,6 UV-I 6,0 C 49 % 74 % 100 % 1026,1 hPa 0,0 l/m 4,4 km/h (1 Bft) 2 min 14,1 km/h (3 Bft)
11.04.2010 11:58 15,3 C 9,9 C 4,6 UV-I 5,3 C 49 % 73 % 100 % 1026,1 hPa 0,0 l/m 4,4 km/h (1 Bft) 2 min 8,4 km/h (2 Bft)
11.04.2010 12:00 15,3 C 9,9 C 2,2 UV-I 4,8 C 49 % 72 % 100 % 1026,1 hPa 0,0 l/m 4,8 km/h (1 Bft) 2 min 6,4 km/h (2 Bft)
11.04.2010 12:04 15,5 C 9,9 C 2,2 UV-I 4,0 C 49 % 72 % 100 % 1026,1 hPa 0,0 l/m 4,8 km/h (1 Bft) 2 min 9,2 km/h (2 Bft)
11.04.2010 12:06 15,5 C 9,8 C 2,2 UV-I 3,2 C 49 % 71 % 91 % 1026,1 hPa 0,0 l/m 4,8 km/h (1 Bft) 2 min 4,8 km/h (1 Bft)
11.04.2010 12:08 15,5 C 9,8 C 2,2 UV-I 2,9 C 49 % 71 % 83 % 1026,1 hPa 0,0 l/m 4,4 km/h (1 Bft) 2 min 9,6 km/h (2 Bft)
11.04.2010 12:12 15,5 C 9,7 C 1,5 UV-I 2,4 C 49 % 71 % 69 % 1026,2 hPa 0,0 l/m 4,4 km/h (1 Bft) 0 min 10,4 km/h (2 Bft)
11.04.2010 12:13 15,5 C 9,8 C 1,5 UV-I 2,1 C 49 % 71 % 60 % 1026,2 hPa 0,0 l/m 4,4 km/h (1 Bft) 0 min 11,2 km/h (2 Bft)
11.04.2010 12:18 15,6 C 9,9 C 1,0 UV-I 1,5 C 49 % 71 % 43 % 1026,2 hPa 0,0 l/m 4,8 km/h (1 Bft) 0 min 6,4 km/h (2 Bft)
11.04.2010 12:23 15,6 C 9,8 C 1,0 UV-I 1,6 C 49 % 71 % 46 % 1026,2 hPa 0,0 l/m 4,8 km/h (1 Bft) 0 min 10,8 km/h (2 Bft)
11.04.2010 12:28 15,6 C 9,9 C 1,5 UV-I 1,9 C 49 % 70 % 54 % 1026,2 hPa 0,0 l/m 4,0 km/h (1 Bft) 0 min 4,8 km/h (1 Bft)
11.04.2010 12:30 15,6 C 9,9 C 1,5 UV-I 2,0 C 49 % 70 % 57 % 1025,9 hPa 0,0 l/m 4,4 km/h (1 Bft) 0 min 8,0 km/h (2 Bft)
11.04.2010 12:32 15,6 C 9,9 C 1,5 UV-I 2,0 C 49 % 70 % 57 % 1025,9 hPa 0,0 l/m 4,4 km/h (1 Bft) 0 min 8,0 km/h (2 Bft)
11.04.2010 12:34 15,6 C 9,9 C 1,5 UV-I 2,0 C 49 % 69 % 57 % 1025,9 hPa 0,0 l/m 4,4 km/h (1 Bft) 0 min 8,4 km/h (2 Bft)
11.04.2010 12:36 15,6 C 10,0 C 2,4 UV-I 2,2 C 49 % 69 % 63 % 1025,9 hPa 0,0 l/m 4,8 km/h (1 Bft) 0 min 6,0 km/h (2 Bft)
11.04.2010 12:38 15,6 C 10,1 C 2,4 UV-I 1,8 C 49 % 68 % 51 % 1025,9 hPa 0,0 l/m 5,6 km/h (1 Bft) 0 min 6,8 km/h (2 Bft)
11.04.2010 12:40 15,6 C 9,9 C 1,0 UV-I 1,8 C 48 % 68 % 51 % 1025,9 hPa 0,0 l/m 6,0 km/h (2 Bft) 0 min 6,0 km/h (2 Bft)
11.04.2010 12:42 15,6 C 9,9 C 1,0 UV-I 1,4 C 48 % 68 % 40 % 1025,9 hPa 0,0 l/m 5,6 km/h (1 Bft) 0 min 6,0 km/h (2 Bft)
11.04.2010 12:44 15,6 C 9,9 C 1,0 UV-I 1,0 C 48 % 69 % 29 % 1025,9 hPa 0,0 l/m 4,8 km/h (1 Bft) 0 min 5,2 km/h (1 Bft)
11.04.2010 12:46 15,6 C 9,9 C 0,1 UV-I 0,8 C 48 % 68 % 23 % 1025,9 hPa 0,0 l/m 4,4 km/h (1 Bft) 0 min 6,8 km/h (2 Bft)
11.04.2010 12:48 15,6 C 9,9 C 0,1 UV-I 0,5 C 48 % 68 % 14 % 1025,9 hPa 0,0 l/m 3,6 km/h (1 Bft) 0 min 8,0 km/h (2 Bft)
11.04.2010 12:50 15,6 C 9,8 C 0,2 UV-I 0,4 C 48 % 68 % 11 % 1025,9 hPa 0,0 l/m 3,6 km/h (1 Bft) 0 min 10,8 km/h (2 Bft)
11.04.2010 12:52 15,6 C 9,7 C 0,2 UV-I 0,2 C 48 % 68 % 6 % 1026,1 hPa 0,0 l/m 4,0 km/h (1 Bft) 0 min 7,6 km/h (2 Bft)
11.04.2010 12:54 15,6 C 9,7 C 0,2 UV-I 0,1 C 48 % 68 % 3 % 1026,1 hPa 0,0 l/m 4,4 km/h (1 Bft) 0 min 0,0 km/h (0 Bft)
11.04.2010 12:56 15,6 C 9,7 C 0,8 UV-I 0,1 C 48 % 68 % 3 % 1026,1 hPa 0,0 l/m 4,4 km/h (1 Bft) 0 min 6,4 km/h (2 Bft)
11.04.2010 12:58 15,6 C 9,7 C 0,8 UV-I 0,1 C 48 % 68 % 3 % 1026,1 hPa 0,0 l/m 4,4 km/h (1 Bft) 0 min 5,6 km/h (1 Bft)
11.04.2010 13:00 15,6 C 9,7 C 1,5 UV-I 0,1 C 48 % 68 % 3 % 1026,1 hPa 0,0 l/m 4,0 km/h (1 Bft) 0 min 0,0 km/h (0 Bft)
11.04.2010 13:02 15,6 C 9,7 C 1,5 UV-I 0,3 C 48 % 68 % 9 % 1026,1 hPa 0,0 l/m 4,0 km/h (1 Bft) 0 min 6,4 km/h (2 Bft)
11.04.2010 13:04 15,6 C 9,8 C 1,5 UV-I 0,3 C 48 % 69 % 9 % 1026,1 hPa 0,0 l/m 3,2 km/h (1 Bft) 0 min 5,6 km/h (1 Bft)
11.04.2010 13:06 15,6 C 9,7 C 1,3 UV-I 0,5 C 48 % 68 % 14 % 1026,1 hPa 0,0 l/m 3,2 km/h (1 Bft) 0 min 6,0 km/h (2 Bft)
11.04.2010 13:08 15,6 C 9,8 C 1,3 UV-I 0,4 C 48 % 69 % 11 % 1026,1 hPa 0,0 l/m 3,2 km/h (1 Bft) 0 min 4,4 km/h (1 Bft)
11.04.2010 13:10 15,6 C 9,8 C 0,5 UV-I 0,4 C 48 % 69 % 11 % 1026,1 hPa 0,0 l/m 3,2 km/h (1 Bft) 0 min 7,2 km/h (2 Bft)
11.04.2010 13:12 15,6 C 9,7 C 0,5 UV-I 0,5 C 48 % 68 % 14 % 1026,0 hPa 0,0 l/m 2,8 km/h (1 Bft) 0 min 4,0 km/h (1 Bft)
11.04.2010 13:14 15,6 C 9,6 C 0,5 UV-I 0,4 C 48 % 68 % 11 % 1026,0 hPa 0,0 l/m 2,4 km/h (1 Bft) 0 min 0,0 km/h (0 Bft)
11.04.2010 13:16 15,6 C 9,7 C 0,2 UV-I 0,3 C 48 % 68 % 9 % 1026,0 hPa 0,0 l/m 2,0 km/h (1 Bft) 0 min 4,4 km/h (1 Bft)
11.04.2010 13:18 15,6 C 9,6 C 0,2 UV-I 0,2 C 48 % 68 % 6 % 1026,0 hPa 0,0 l/m 2,4 km/h (1 Bft) 0 min 0,0 km/h (0 Bft)
11.04.2010 13:20 15,6 C 9,7 C 0,2 UV-I 0,0 C 48 % 68 % 0 % 1026,0 hPa 0,0 l/m 2,0 km/h (1 Bft) 0 min 4,0 km/h (1 Bft)
11.04.2010 13:22 15,6 C 9,6 C 0,2 UV-I 0,0 C 48 % 68 % 0 % 1026,0 hPa 0,0 l/m 2,0 km/h (1 Bft) 0 min 0,0 km/h (0 Bft)
11.04.2010 13:24 15,6 C 9,6 C 0,2 UV-I 0,0 C 48 % 69 % 0 % 1026,0 hPa 0,0 l/m 1,6 km/h (1 Bft) 0 min 0,0 km/h (0 Bft)
11.04.2010 13:26 15,6 C 9,6 C 0,0 UV-I 0,0 C 48 % 69 % 0 % 1026,0 hPa 0,0 l/m 1,6 km/h (1 Bft) 0 min 5,2 km/h (1 Bft)
11.04.2010 13:28 15,6 C 9,5 C 0,0 UV-I 0,0 C 48 % 68 % 0 % 1026,0 hPa 0,0 l/m 1,6 km/h (1 Bft) 0 min 0,0 km/h (0 Bft)
11.04.2010 13:30 15,6 C 9,5 C 0,0 UV-I 0,0 C 48 % 69 % 0 % 1026,0 hPa 0,0 l/m 1,6 km/h (1 Bft) 0 min 5,2 km/h (1 Bft)
11.04.2010 13:32 15,6 C 9,4 C 0,0 UV-I 0,0 C 48 % 69 % 0 % 1025,2 hPa 0,0 l/m 1,6 km/h (1 Bft) 0 min 8,0 km/h (2 Bft)
11.04.2010 13:34 15,6 C 9,4 C 0,0 UV-I 0,0 C 48 % 69 % 0 % 1025,2 hPa 0,0 l/m 2,0 km/h (1 Bft) 0 min 4,0 km/h (1 Bft)
11.04.2010 13:36 15,6 C 9,5 C 0,6 UV-I 0,0 C 48 % 69 % 0 % 1025,2 hPa 0,0 l/m 2,0 km/h (1 Bft) 0 min 5,2 km/h (1 Bft)
11.04.2010 13:38 15,6 C 9,5 C 0,6 UV-I 0,0 C 48 % 69 % 0 % 1025,2 hPa 0,0 l/m 2,0 km/h (1 Bft) 0 min 6,4 km/h (2 Bft)
11.04.2010 13:40 15,6 C 9,6 C 2,6 UV-I 0,2 C 48 % 69 % 6 % 1025,2 hPa 0,0 l/m 2,4 km/h (1 Bft) 0 min 5,6 km/h (1 Bft)
11.04.2010 13:42 15,6 C 9,6 C 2,6 UV-I 1,1 C 48 % 69 % 31 % 1025,2 hPa 0,0 l/m 2,4 km/h (1 Bft) 0 min 0,0 km/h (0 Bft)
11.04.2010 13:44 15,6 C 9,7 C 2,6 UV-I 1,7 C 48 % 69 % 49 % 1025,2 hPa 0,0 l/m 2,0 km/h (1 Bft) 0 min 4,4 km/h (1 Bft)
11.04.2010 13:46 15,6 C 9,9 C 2,7 UV-I 2,0 C 48 % 69 % 57 % 1025,2 hPa 0,0 l/m 2,0 km/h (1 Bft) 0 min 0,0 km/h (0 Bft)
11.04.2010 13:48 15,6 C 9,9 C 2,7 UV-I 2,3 C 48 % 68 % 66 % 1025,2 hPa 0,0 l/m 2,4 km/h (1 Bft) 0 min 0,0 km/h (0 Bft)
11.04.2010 13:50 15,6 C 9,8 C 1,1 UV-I 2,5 C 48 % 67 % 71 % 1025,2 hPa 0,0 l/m 2,0 km/h (1 Bft) 0 min 0,0 km/h (0 Bft)
11.04.2010 13:52 15,6 C 9,9 C 1,1 UV-I 2,3 C 48 % 67 % 66 % 1025,6 hPa 0,0 l/m 2,4 km/h (1 Bft) 0 min 10,8 km/h (2 Bft)
11.04.2010 13:54 15,7 C 9,9 C 1,1 UV-I 2,2 C 48 % 67 % 63 % 1025,6 hPa 0,0 l/m 2,4 km/h (1 Bft) 0 min 0,0 km/h (0 Bft)
11.04.2010 13:56 15,6 C 9,9 C 0,6 UV-I 2,1 C 48 % 67 % 60 % 1025,6 hPa 0,0 l/m 2,4 km/h (1 Bft) 0 min 0,0 km/h (0 Bft)
11.04.2010 13:58 15,6 C 9,9 C 0,6 UV-I 2,0 C 48 % 67 % 57 % 1025,6 hPa 0,0 l/m 2,0 km/h (1 Bft) 0 min 4,8 km/h (1 Bft)
11.04.2010 14:00 15,6 C 9,9 C 0,2 UV-I 1,8 C 48 % 67 % 51 % 1025,6 hPa 0,0 l/m 3,2 km/h (1 Bft) 0 min 11,2 km/h (2 Bft)
11.04.2010 14:02 15,7 C 9,9 C 0,2 UV-I 1,6 C 48 % 65 % 46 % 1025,6 hPa 0,0 l/m 4,0 km/h (1 Bft) 0 min 10,0 km/h (2 Bft)
11.04.2010 14:04 15,7 C 9,9 C 0,2 UV-I 1,4 C 48 % 64 % 40 % 1025,6 hPa 0,0 l/m 4,8 km/h (1 Bft) 0 min 8,4 km/h (2 Bft)
11.04.2010 14:06 15,7 C 9,8 C 1,0 UV-I 1,3 C 48 % 65 % 37 % 1025,6 hPa 0,0 l/m 6,4 km/h (2 Bft) 0 min 10,4 km/h (2 Bft)
11.04.2010 14:08 15,7 C 9,9 C 1,0 UV-I 1,4 C 48 % 64 % 40 % 1025,6 hPa 0,0 l/m 6,8 km/h (2 Bft) 0 min 5,6 km/h (1 Bft)
11.04.2010 14:10 15,7 C 9,9 C 2,0 UV-I 1,6 C 48 % 65 % 46 % 1025,6 hPa 0,0 l/m 6,8 km/h (2 Bft) 0 min 6,0 km/h (2 Bft)
11.04.2010 14:12 15,6 C 10,0 C 2,0 UV-I 1,8 C 48 % 65 % 51 % 1025,7 hPa 0,0 l/m 5,6 km/h (1 Bft) 0 min 6,0 km/h (2 Bft)
11.04.2010 14:14 15,6 C 10,0 C 2,0 UV-I 1,8 C 48 % 64 % 51 % 1025,7 hPa 0,0 l/m 5,2 km/h (1 Bft) 0 min 7,6 km/h (2 Bft)
11.04.2010 14:16 15,6 C 10,0 C 1,5 UV-I 1,8 C 48 % 64 % 51 % 1025,7 hPa 0,0 l/m 4,4 km/h (1 Bft) 0 min 0,0 km/h (0 Bft)
11.04.2010 14:18 15,6 C 10,1 C 1,5 UV-I 1,6 C 48 % 64 % 46 % 1025,7 hPa 0,0 l/m 4,0 km/h (1 Bft) 0 min 5,2 km/h (1 Bft)
11.04.2010 14:20 15,6 C 10,1 C 0,9 UV-I 1,7 C 48 % 64 % 49 % 1025,7 hPa 0,0 l/m 4,8 km/h (1 Bft) 0 min 6,8 km/h (2 Bft)
11.04.2010 14:22 15,6 C 10,1 C 0,9 UV-I 1,5 C 48 % 63 % 43 % 1025,7 hPa 0,0 l/m 5,6 km/h (1 Bft) 0 min 10,0 km/h (2 Bft)
11.04.2010 14:24 15,6 C 10,0 C 0,9 UV-I 1,6 C 48 % 62 % 46 % 1025,7 hPa 0,0 l/m 5,6 km/h (1 Bft) 0 min 7,6 km/h (2 Bft)
11.04.2010 14:26 15,6 C 10,1 C 1,2 UV-I 1,5 C 48 % 61 % 43 % 1025,7 hPa 0,0 l/m 6,4 km/h (2 Bft) 0 min 8,0 km/h (2 Bft)
11.04.2010 14:28 15,8 C 10,0 C 1,2 UV-I 1,5 C 48 % 61 % 43 % 1025,7 hPa 0,0 l/m 7,2 km/h (2 Bft) 0 min 9,2 km/h (2 Bft)
11.04.2010 14:30 15,8 C 10,0 C 0,4 UV-I 1,4 C 47 % 61 % 40 % 1025,7 hPa 0,0 l/m 7,6 km/h (2 Bft) 0 min 6,8 km/h (2 Bft)
11.04.2010 14:32 15,6 C 10,0 C 0,4 UV-I 1,2 C 47 % 61 % 34 % 1025,6 hPa 0,0 l/m 7,2 km/h (2 Bft) 0 min 7,2 km/h (2 Bft)
11.04.2010 14:34 15,6 C 10,0 C 0,4 UV-I 1,0 C 47 % 61 % 29 % 1025,6 hPa 0,0 l/m 7,2 km/h (2 Bft) 0 min 12,8 km/h (3 Bft)
11.04.2010 14:36 15,6 C 10,0 C 0,1 UV-I 0,8 C 47 % 61 % 23 % 1025,6 hPa 0,0 l/m 7,2 km/h (2 Bft) 0 min 8,4 km/h (2 Bft)
11.04.2010 14:38 15,8 C 10,0 C 0,1 UV-I 0,6 C 47 % 61 % 17 % 1025,6 hPa 0,0 l/m 6,8 km/h (2 Bft) 0 min 8,0 km/h (2 Bft)
11.04.2010 14:40 15,8 C 9,8 C 0,2 UV-I 0,6 C 47 % 61 % 17 % 1025,6 hPa 0,0 l/m 6,4 km/h (2 Bft) 0 min 8,0 km/h (2 Bft)
11.04.2010 14:42 15,6 C 9,8 C 0,2 UV-I 0,4 C 47 % 61 % 11 % 1025,6 hPa 0,0 l/m 6,0 km/h (2 Bft) 0 min 5,6 km/h (1 Bft)
11.04.2010 14:44 15,8 C 9,9 C 0,2 UV-I 0,3 C 47 % 62 % 9 % 1025,6 hPa 0,0 l/m 6,0 km/h (2 Bft) 0 min 4,8 km/h (1 Bft)
11.04.2010 14:46 15,6 C 9,8 C 0,2 UV-I 0,4 C 47 % 61 % 11 % 1025,6 hPa 0,0 l/m 5,6 km/h (1 Bft) 0 min 8,4 km/h (2 Bft)
11.04.2010 14:48 15,6 C 9,9 C 0,2 UV-I 0,5 C 47 % 61 % 14 % 1025,6 hPa 0,0 l/m 5,6 km/h (1 Bft) 0 min 10,0 km/h (2 Bft)
11.04.2010 14:50 15,6 C 9,9 C 1,6 UV-I 0,6 C 47 % 61 % 17 % 1025,6 hPa 0,0 l/m 6,4 km/h (2 Bft) 0 min 12,8 km/h (3 Bft)
11.04.2010 14:52 15,6 C 9,9 C 1,6 UV-I 0,8 C 47 % 61 % 23 % 1025,4 hPa 0,0 l/m 6,0 km/h (2 Bft) 0 min 5,2 km/h (1 Bft)
11.04.2010 14:54 15,6 C 10,0 C 1,6 UV-I 0,8 C 47 % 62 % 23 % 1025,4 hPa 0,0 l/m 6,4 km/h (2 Bft) 0 min 8,0 km/h (2 Bft)
11.04.2010 14:56 15,6 C 10,0 C 1,9 UV-I 1,1 C 47 % 62 % 31 % 1025,4 hPa 0,0 l/m 6,8 km/h (2 Bft) 0 min 13,3 km/h (3 Bft)
11.04.2010 14:58 15,6 C 10,0 C 1,9 UV-I 1,1 C 47 % 62 % 31 % 1025,4 hPa 0,0 l/m 6,8 km/h (2 Bft) 0 min 7,2 km/h (2 Bft)
11.04.2010 15:00 15,8 C 10,0 C 1,4 UV-I 1,2 C 47 % 61 % 34 % 1025,4 hPa 0,0 l/m 6,8 km/h (2 Bft) 0 min 8,0 km/h (2 Bft)
11.04.2010 15:02 15,8 C 10,0 C 1,4 UV-I 1,2 C 47 % 61 % 34 % 1025,4 hPa 0,0 l/m 6,0 km/h (2 Bft) 0 min 4,4 km/h (1 Bft)
11.04.2010 15:04 15,8 C 10,1 C 1,4 UV-I 1,2 C 47 % 62 % 34 % 1025,4 hPa 0,0 l/m 5,6 km/h (1 Bft) 0 min 8,0 km/h (2 Bft)
11.04.2010 15:06 15,8 C 10,1 C 1,9 UV-I 1,3 C 47 % 62 % 37 % 1025,4 hPa 0,0 l/m 5,6 km/h (1 Bft) 0 min 7,2 km/h (2 Bft)
11.04.2010 15:08 15,8 C 10,1 C 1,9 UV-I 1,5 C 47 % 62 % 43 % 1025,4 hPa 0,0 l/m 5,2 km/h (1 Bft) 0 min 6,8 km/h (2 Bft)
11.04.2010 15:10 15,8 C 10,2 C 2,0 UV-I 1,6 C 47 % 62 % 46 % 1025,4 hPa 0,0 l/m 4,8 km/h (1 Bft) 0 min 7,2 km/h (2 Bft)
11.04.2010 15:12 15,8 C 10,3 C 2,0 UV-I 1,6 C 47 % 62 % 46 % 1025,1 hPa 0,0 l/m 4,4 km/h (1 Bft) 0 min 5,6 km/h (1 Bft)
11.04.2010 15:14 15,8 C 10,3 C 2,0 UV-I 1,9 C 47 % 62 % 54 % 1025,1 hPa 0,0 l/m 4,8 km/h (1 Bft) 0 min 0,0 km/h (0 Bft)
11.04.2010 15:16 15,8 C 10,4 C 3,3 UV-I 2,6 C 47 % 63 % 74 % 1025,1 hPa 0,0 l/m 4,0 km/h (1 Bft) 0 min 4,0 km/h (1 Bft)
11.04.2010 15:18 15,8 C 10,5 C 3,3 UV-I 3,2 C 47 % 63 % 91 % 1025,1 hPa 0,0 l/m 4,4 km/h (1 Bft) 2 min 6,4 km/h (2 Bft)
11.04.2010 15:20 15,8 C 10,6 C 2,5 UV-I 3,3 C 47 % 62 % 94 % 1025,1 hPa 0,0 l/m 5,2 km/h (1 Bft) 2 min 16,5 km/h (3 Bft)
11.04.2010 15:22 15,8 C 10,7 C 2,5 UV-I 3,3 C 47 % 61 % 94 % 1025,1 hPa 0,0 l/m 5,6 km/h (1 Bft) 2 min 8,4 km/h (2 Bft)
11.04.2010 15:24 15,8 C 10,6 C 2,5 UV-I 3,1 C 47 % 61 % 89 % 1025,1 hPa 0,0 l/m 6,0 km/h (2 Bft) 2 min 7,2 km/h (2 Bft)
11.04.2010 15:26 15,9 C 10,5 C 0,8 UV-I 2,8 C 47 % 61 % 80 % 1025,1 hPa 0,0 l/m 6,8 km/h (2 Bft) 0 min 5,2 km/h (1 Bft)
11.04.2010 15:30 15,9 C 10,5 C 0,1 UV-I 2,0 C 47 % 61 % 57 % 1025,1 hPa 0,0 l/m 6,8 km/h (2 Bft) 0 min 6,4 km/h (2 Bft)
11.04.2010 15:32 15,9 C 10,5 C 0,1 UV-I 1,6 C 46 % 61 % 46 % 1025,3 hPa 0,0 l/m 6,0 km/h (2 Bft) 0 min 6,8 km/h (2 Bft)
11.04.2010 15:34 15,9 C 10,4 C 0,1 UV-I 1,4 C 46 % 61 % 40 % 1025,3 hPa 0,0 l/m 5,6 km/h (1 Bft) 0 min 8,4 km/h (2 Bft)
11.04.2010 15:36 15,9 C 10,3 C 0,2 UV-I 1,1 C 46 % 61 % 31 % 1025,3 hPa 0,0 l/m 5,6 km/h (1 Bft) 0 min 7,6 km/h (2 Bft)
11.04.2010 15:38 15,8 C 10,3 C 0,2 UV-I 0,8 C 46 % 61 % 23 % 1025,3 hPa 0,0 l/m 6,0 km/h (2 Bft) 0 min 6,4 km/h (2 Bft)
11.04.2010 15:40 15,8 C 10,3 C 0,3 UV-I 0,5 C 46 % 61 % 14 % 1025,3 hPa 0,0 l/m 6,0 km/h (2 Bft) 0 min 4,4 km/h (1 Bft)
11.04.2010 15:42 15,8 C 10,3 C 0,3 UV-I 0,4 C 46 % 61 % 11 % 1025,3 hPa 0,0 l/m 6,0 km/h (2 Bft) 0 min 10,0 km/h (2 Bft)
11.04.2010 15:44 15,9 C 10,3 C 0,3 UV-I 0,1 C 46 % 61 % 3 % 1025,3 hPa 0,0 l/m 5,2 km/h (1 Bft) 0 min 7,2 km/h (2 Bft)
11.04.2010 15:46 15,8 C 10,2 C 0,4 UV-I 0,2 C 46 % 62 % 6 % 1025,3 hPa 0,0 l/m 5,2 km/h (1 Bft) 0 min 12,8 km/h (3 Bft)
11.04.2010 15:48 15,9 C 10,1 C 0,4 UV-I 0,2 C 46 % 62 % 6 % 1025,3 hPa 0,0 l/m 5,6 km/h (1 Bft) 0 min 8,8 km/h (2 Bft)
11.04.2010 15:50 15,8 C 10,0 C 1,0 UV-I 0,2 C 46 % 62 % 6 % 1025,3 hPa 0,0 l/m 6,0 km/h (2 Bft) 0 min 6,4 km/h (2 Bft)
11.04.2010 15:52 15,8 C 10,0 C 1,0 UV-I 0,2 C 46 % 62 % 6 % 1025,0 hPa 0,0 l/m 6,0 km/h (2 Bft) 0 min 7,2 km/h (2 Bft)
11.04.2010 15:54 15,9 C 10,1 C 1,0 UV-I 0,5 C 46 % 62 % 14 % 1025,0 hPa 0,0 l/m 6,0 km/h (2 Bft) 0 min 8,4 km/h (2 Bft)
11.04.2010 15:56 15,9 C 10,1 C 2,5 UV-I 0,8 C 46 % 63 % 23 % 1025,0 hPa 0,0 l/m 5,6 km/h (1 Bft) 0 min 0,0 km/h (0 Bft)
11.04.2010 15:58 15,9 C 10,3 C 2,5 UV-I 0,9 C 46 % 63 % 26 % 1025,0 hPa 0,0 l/m 4,8 km/h (1 Bft) 0 min 6,4 km/h (2 Bft)
11.04.2010 16:00 15,9 C 10,3 C 1,3 UV-I 1,2 C 46 % 62 % 34 % 1025,0 hPa 0,0 l/m 4,8 km/h (1 Bft) 0 min 6,4 km/h (2 Bft)
11.04.2010 16:02 15,9 C 10,3 C 1,3 UV-I 1,3 C 46 % 62 % 37 % 1025,0 hPa 0,0 l/m 4,4 km/h (1 Bft) 0 min 6,4 km/h (2 Bft)
11.04.2010 16:04 15,9 C 10,2 C 1,3 UV-I 1,4 C 46 % 62 % 40 % 1025,0 hPa 0,0 l/m 4,4 km/h (1 Bft) 0 min 6,0 km/h (2 Bft)
11.04.2010 16:06 15,9 C 10,3 C 0,1 UV-I 1,2 C 46 % 62 % 34 % 1025,0 hPa 0,0 l/m 5,6 km/h (1 Bft) 0 min 8,4 km/h (2 Bft)
11.04.2010 16:08 15,9 C 10,2 C 0,1 UV-I 1,1 C 46 % 62 % 31 % 1025,0 hPa 0,0 l/m 6,0 km/h (2 Bft) 0 min 5,6 km/h (1 Bft)
11.04.2010 16:10 15,9 C 10,1 C 0,1 UV-I 0,9 C 46 % 62 % 26 % 1025,0 hPa 0,0 l/m 6,0 km/h (2 Bft) 0 min 6,8 km/h (2 Bft)
11.04.2010 16:12 15,9 C 10,0 C 0,1 UV-I 0,7 C 46 % 62 % 20 % 1024,9 hPa 0,0 l/m 6,8 km/h (2 Bft) 0 min 10,8 km/h (2 Bft)
11.04.2010 16:14 15,9 C 10,1 C 0,1 UV-I 0,4 C 46 % 62 % 11 % 1024,9 hPa 0,0 l/m 6,8 km/h (2 Bft) 0 min 7,2 km/h (2 Bft)
11.04.2010 16:16 15,9 C 10,1 C 0,1 UV-I 0,2 C 46 % 63 % 6 % 1024,9 hPa 0,0 l/m 6,0 km/h (2 Bft) 0 min 5,2 km/h (1 Bft)
11.04.2010 16:18 15,9 C 10,0 C 0,1 UV-I 0,2 C 46 % 63 % 6 % 1024,9 hPa 0,0 l/m 5,6 km/h (1 Bft) 0 min 0,0 km/h (0 Bft)
11.04.2010 16:20 15,8 C 10,0 C 0,1 UV-I 0,2 C 46 % 63 % 6 % 1024,9 hPa 0,0 l/m 5,2 km/h (1 Bft) 0 min 5,2 km/h (1 Bft)
11.04.2010 16:22 15,9 C 10,0 C 0,1 UV-I 0,2 C 46 % 63 % 6 % 1024,9 hPa 0,0 l/m 4,8 km/h (1 Bft) 0 min 6,8 km/h (2 Bft)
11.04.2010 16:24 15,9 C 10,1 C 0,1 UV-I 0,1 C 46 % 63 % 3 % 1024,9 hPa 0,0 l/m 4,4 km/h (1 Bft) 0 min 6,8 km/h (2 Bft)
11.04.2010 16:26 15,9 C 10,0 C 0,0 UV-I 0,2 C 46 % 63 % 6 % 1024,9 hPa 0,0 l/m 4,4 km/h (1 Bft) 0 min 5,2 km/h (1 Bft)
11.04.2010 16:28 15,8 C 10,0 C 0,0 UV-I 0,2 C 46 % 63 % 6 % 1024,9 hPa 0,0 l/m 4,4 km/h (1 Bft) 0 min 4,0 km/h (1 Bft)
11.04.2010 16:30 15,8 C 10,0 C 0,0 UV-I 0,1 C 46 % 63 % 3 % 1024,9 hPa 0,0 l/m 4,8 km/h (1 Bft) 0 min 13,7 km/h (3 Bft)
11.04.2010 16:34 15,8 C 9,8 C 0,0 UV-I 0,0 C 46 % 64 % 0 % 1024,8 hPa 0,0 l/m 4,4 km/h (1 Bft) 0 min 4,8 km/h (1 Bft)
11.04.2010 16:36 15,8 C 9,9 C 0,0 UV-I 0,0 C 46 % 64 % 0 % 1024,8 hPa 0,0 l/m 4,8 km/h (1 Bft) 0 min 11,2 km/h (2 Bft)
11.04.2010 16:38 15,8 C 9,9 C 0,0 UV-I 0,0 C 46 % 64 % 0 % 1024,8 hPa 0,0 l/m 5,2 km/h (1 Bft) 0 min 7,2 km/h (2 Bft)
11.04.2010 16:40 15,8 C 9,8 C 0,5 UV-I 0,0 C 46 % 64 % 0 % 1024,8 hPa 0,0 l/m 5,2 km/h (1 Bft) 0 min 6,4 km/h (2 Bft)
11.04.2010 16:42 15,8 C 9,8 C 0,5 UV-I 0,0 C 46 % 64 % 0 % 1024,8 hPa 0,0 l/m 4,8 km/h (1 Bft) 0 min 0,0 km/h (0 Bft)
11.04.2010 16:44 15,8 C 9,8 C 0,5 UV-I 0,0 C 46 % 65 % 0 % 1024,8 hPa 0,0 l/m 4,4 km/h (1 Bft) 0 min 0,0 km/h (0 Bft)
11.04.2010 16:46 15,8 C 9,9 C 0,8 UV-I 0,1 C 46 % 65 % 3 % 1024,8 hPa 0,0 l/m 4,4 km/h (1 Bft) 0 min 8,8 km/h (2 Bft)
11.04.2010 16:48 15,8 C 9,9 C 0,8 UV-I 0,1 C 46 % 65 % 3 % 1024,8 hPa 0,0 l/m 3,6 km/h (1 Bft) 0 min 0,0 km/h (0 Bft)
11.04.2010 16:50 15,8 C 9,9 C 0,8 UV-I 0,3 C 46 % 65 % 9 % 1024,8 hPa 0,0 l/m 3,6 km/h (1 Bft) 0 min 7,2 km/h (2 Bft)
11.04.2010 16:52 15,8 C 9,9 C 0,8 UV-I 0,3 C 46 % 65 % 9 % 1024,4 hPa 0,0 l/m 3,6 km/h (1 Bft) 0 min 6,4 km/h (2 Bft)
11.04.2010 16:54 15,8 C 9,9 C 0,8 UV-I 0,3 C 46 % 65 % 9 % 1024,4 hPa 0,0 l/m 4,4 km/h (1 Bft) 0 min 12,0 km/h (2 Bft)
11.04.2010 16:56 15,8 C 9,8 C 0,4 UV-I 0,3 C 46 % 65 % 9 % 1024,4 hPa 0,0 l/m 6,0 km/h (2 Bft) 0 min 7,2 km/h (2 Bft)
11.04.2010 16:58 15,8 C 9,7 C 0,4 UV-I 0,3 C 46 % 65 % 9 % 1024,4 hPa 0,0 l/m 6,4 km/h (2 Bft) 0 min 10,8 km/h (2 Bft)
11.04.2010 17:00 15,8 C 9,6 C 0,1 UV-I 0,3 C 46 % 65 % 9 % 1024,4 hPa 0,0 l/m 7,2 km/h (2 Bft) 0 min 7,2 km/h (2 Bft)
11.04.2010 17:02 15,8 C 9,6 C 0,1 UV-I 0,2 C 46 % 65 % 6 % 1024,4 hPa 0,0 l/m 7,2 km/h (2 Bft) 0 min 8,4 km/h (2 Bft)
11.04.2010 17:04 15,8 C 9,7 C 0,1 UV-I 0,0 C 46 % 65 % 0 % 1024,4 hPa 0,0 l/m 7,6 km/h (2 Bft) 0 min 14,5 km/h (3 Bft)
11.04.2010 17:06 15,8 C 9,6 C 0,6 UV-I 0,1 C 46 % 65 % 3 % 1024,4 hPa 0,0 l/m 7,2 km/h (2 Bft) 0 min 6,8 km/h (2 Bft)
11.04.2010 17:08 15,8 C 9,6 C 0,6 UV-I 0,1 C 46 % 65 % 3 % 1024,4 hPa 0,0 l/m 6,0 km/h (2 Bft) 0 min 4,0 km/h (1 Bft)
11.04.2010 17:10 15,8 C 9,6 C 0,6 UV-I 0,2 C 46 % 65 % 6 % 1024,4 hPa 0,0 l/m 5,2 km/h (1 Bft) 0 min 7,6 km/h (2 Bft)
11.04.2010 17:12 15,8 C 9,6 C 0,6 UV-I 0,2 C 46 % 66 % 6 % 1024,6 hPa 0,0 l/m 5,2 km/h (1 Bft) 0 min 9,6 km/h (2 Bft)
11.04.2010 17:14 15,6 C 9,7 C 0,6 UV-I 0,1 C 46 % 65 % 3 % 1024,6 hPa 0,0 l/m 6,0 km/h (2 Bft) 0 min 11,2 km/h (2 Bft)
11.04.2010 17:16 15,8 C 9,6 C 0,7 UV-I 0,3 C 46 % 66 % 9 % 1024,6 hPa 0,0 l/m 6,0 km/h (2 Bft) 0 min 5,2 km/h (1 Bft)
11.04.2010 17:18 15,8 C 9,7 C 0,7 UV-I 0,3 C 46 % 66 % 9 % 1024,6 hPa 0,0 l/m 6,0 km/h (2 Bft) 0 min 7,2 km/h (2 Bft)
11.04.2010 17:20 15,8 C 9,6 C 0,6 UV-I 0,4 C 46 % 66 % 11 % 1024,6 hPa 0,0 l/m 6,4 km/h (2 Bft) 0 min 6,4 km/h (2 Bft)
11.04.2010 17:22 15,6 C 9,7 C 0,6 UV-I 0,4 C 46 % 66 % 11 % 1024,6 hPa 0,0 l/m 7,2 km/h (2 Bft) 0 min 8,8 km/h (2 Bft)
11.04.2010 17:24 15,6 C 9,6 C 0,6 UV-I 0,5 C 46 % 66 % 14 % 1024,6 hPa 0,0 l/m 6,4 km/h (2 Bft) 0 min 10,8 km/h (2 Bft)
11.04.2010 17:26 15,8 C 9,7 C 0,2 UV-I 0,4 C 47 % 66 % 11 % 1024,6 hPa 0,0 l/m 6,4 km/h (2 Bft) 0 min 6,0 km/h (2 Bft)
11.04.2010 17:28 15,8 C 9,6 C 0,2 UV-I 0,4 C 46 % 66 % 11 % 1024,6 hPa 0,0 l/m 6,4 km/h (2 Bft) 0 min 6,0 km/h (2 Bft)
11.04.2010 17:30 15,6 C 9,6 C 0,4 UV-I 0,4 C 47 % 66 % 11 % 1024,6 hPa 0,0 l/m 6,0 km/h (2 Bft) 0 min 7,2 km/h (2 Bft)
11.04.2010 17:32 15,8 C 9,6 C 0,4 UV-I 0,4 C 47 % 66 % 11 % 1024,4 hPa 0,0 l/m 6,4 km/h (2 Bft) 0 min 18,9 km/h (3 Bft)
11.04.2010 17:34 15,6 C 9,5 C 0,4 UV-I 0,5 C 47 % 66 % 14 % 1024,4 hPa 0,0 l/m 6,4 km/h (2 Bft) 0 min 6,8 km/h (2 Bft)
11.04.2010 17:36 15,6 C 9,6 C 0,4 UV-I 0,4 C 47 % 66 % 11 % 1024,4 hPa 0,0 l/m 6,4 km/h (2 Bft) 0 min 15,7 km/h (3 Bft)
11.04.2010 17:38 15,6 C 9,5 C 0,4 UV-I 0,4 C 47 % 66 % 11 % 1024,4 hPa 0,0 l/m 7,2 km/h (2 Bft) 0 min 9,2 km/h (2 Bft)
11.04.2010 17:40 15,6 C 9,5 C 0,5 UV-I 0,3 C 47 % 66 % 9 % 1024,4 hPa 0,0 l/m 8,0 km/h (2 Bft) 0 min 12,8 km/h (3 Bft)
11.04.2010 17:42 15,6 C 9,5 C 0,5 UV-I 0,3 C 47 % 67 % 9 % 1024,4 hPa 0,0 l/m 8,0 km/h (2 Bft) 0 min 5,2 km/h (1 Bft)
11.04.2010 17:44 15,6 C 9,5 C 0,5 UV-I 0,3 C 47 % 67 % 9 % 1024,4 hPa 0,0 l/m 7,6 km/h (2 Bft) 0 min 13,3 km/h (3 Bft)
11.04.2010 17:46 15,6 C 9,5 C 0,5 UV-I 0,2 C 47 % 67 % 6 % 1024,4 hPa 0,0 l/m 7,2 km/h (2 Bft) 0 min 4,0 km/h (1 Bft)
11.04.2010 17:48 15,6 C 9,5 C 0,5 UV-I 0,1 C 47 % 67 % 3 % 1024,4 hPa 0,0 l/m 6,8 km/h (2 Bft) 0 min 5,6 km/h (1 Bft)
11.04.2010 17:50 15,6 C 9,5 C 0,5 UV-I 0,0 C 47 % 67 % 0 % 1024,4 hPa 0,0 l/m 7,2 km/h (2 Bft) 0 min 5,6 km/h (1 Bft)
11.04.2010 17:52 15,6 C 9,5 C 0,5 UV-I 0,0 C 47 % 67 % 0 % 1024,5 hPa 0,0 l/m 6,4 km/h (2 Bft) 0 min 8,0 km/h (2 Bft)
11.04.2010 17:54 15,6 C 9,5 C 0,5 UV-I 0,0 C 47 % 67 % 0 % 1024,5 hPa 0,0 l/m 6,4 km/h (2 Bft) 0 min 5,2 km/h (1 Bft)
11.04.2010 17:56 15,6 C 9,5 C 0,2 UV-I 0,0 C 47 % 68 % 0 % 1024,5 hPa 0,0 l/m 6,0 km/h (2 Bft) 0 min 9,2 km/h (2 Bft)
11.04.2010 17:58 15,6 C 9,4 C 0,2 UV-I 0,1 C 47 % 68 % 3 % 1024,5 hPa 0,0 l/m 6,8 km/h (2 Bft) 0 min 18,5 km/h (3 Bft)
11.04.2010 18:00 15,6 C 9,3 C 0,3 UV-I 0,1 C 47 % 68 % 3 % 1024,5 hPa 0,0 l/m 7,6 km/h (2 Bft) 0 min 13,3 km/h (3 Bft)
11.04.2010 18:02 15,6 C 9,2 C 0,3 UV-I 0,0 C 47 % 68 % 0 % 1024,5 hPa 0,0 l/m 8,8 km/h (2 Bft) 0 min 22,5 km/h (4 Bft)
11.04.2010 18:04 15,6 C 9,2 C 0,3 UV-I 0,0 C 47 % 69 % 0 % 1024,5 hPa 0,0 l/m 8,8 km/h (2 Bft) 0 min 8,0 km/h (2 Bft)
11.04.2010 18:06 15,6 C 9,1 C 0,3 UV-I 0,0 C 47 % 69 % 0 % 1024,5 hPa 0,0 l/m 11,2 km/h (2 Bft) 0 min 18,5 km/h (3 Bft)
11.04.2010 18:08 15,6 C 9,1 C 0,3 UV-I 0,0 C 47 % 69 % 0 % 1024,5 hPa 0,0 l/m 12,0 km/h (2 Bft) 0 min 19,7 km/h (3 Bft)
11.04.2010 18:10 15,7 C 9,0 C 1,2 UV-I 0,4 C 47 % 70 % 11 % 1024,5 hPa 0,0 l/m 11,6 km/h (2 Bft) 0 min 14,1 km/h (3 Bft)
11.04.2010 18:12 15,6 C 9,0 C 1,2 UV-I 1,1 C 47 % 70 % 31 % 1024,4 hPa 0,0 l/m 10,8 km/h (2 Bft) 0 min 7,2 km/h (2 Bft)
11.04.2010 18:14 15,6 C 9,1 C 1,2 UV-I 1,3 C 47 % 71 % 37 % 1024,4 hPa 0,0 l/m 11,6 km/h (2 Bft) 0 min 22,1 km/h (4 Bft)
11.04.2010 18:16 15,7 C 9,1 C 1,3 UV-I 1,5 C 47 % 71 % 43 % 1024,4 hPa 0,0 l/m 10,8 km/h (2 Bft) 0 min 13,7 km/h (3 Bft)
11.04.2010 18:18 15,6 C 9,1 C 1,3 UV-I 1,5 C 47 % 71 % 43 % 1024,4 hPa 0,0 l/m 9,6 km/h (2 Bft) 0 min 6,0 km/h (2 Bft)
11.04.2010 18:20 15,6 C 9,1 C 1,1 UV-I 1,5 C 47 % 71 % 43 % 1024,4 hPa 0,0 l/m 9,2 km/h (2 Bft) 0 min 8,4 km/h (2 Bft)
11.04.2010 18:22 15,6 C 9,1 C 1,1 UV-I 1,4 C 48 % 71 % 40 % 1024,4 hPa 0,0 l/m 8,8 km/h (2 Bft) 0 min 11,2 km/h (2 Bft)
11.04.2010 18:24 15,6 C 9,1 C 1,1 UV-I 1,3 C 48 % 71 % 37 % 1024,4 hPa 0,0 l/m 8,8 km/h (2 Bft) 0 min 10,8 km/h (2 Bft)
11.04.2010 18:26 15,6 C 9,1 C 1,0 UV-I 1,3 C 48 % 71 % 37 % 1024,4 hPa 0,0 l/m 8,0 km/h (2 Bft) 0 min 8,8 km/h (2 Bft)
11.04.2010 18:28 15,6 C 9,1 C 1,0 UV-I 1,4 C 48 % 71 % 40 % 1024,4 hPa 0,0 l/m 8,0 km/h (2 Bft) 0 min 13,7 km/h (3 Bft)
11.04.2010 18:30 15,8 C 8,9 C 0,7 UV-I 1,6 C 48 % 71 % 46 % 1024,4 hPa 0,0 l/m 8,4 km/h (2 Bft) 0 min 12,0 km/h (2 Bft)
11.04.2010 18:32 15,8 C 8,9 C 0,7 UV-I 1,5 C 48 % 72 % 43 % 1024,6 hPa 0,0 l/m 9,2 km/h (2 Bft) 0 min 11,6 km/h (2 Bft)
11.04.2010 18:34 15,8 C 8,8 C 0,7 UV-I 1,4 C 48 % 72 % 40 % 1024,6 hPa 0,0 l/m 9,2 km/h (2 Bft) 0 min 8,8 km/h (2 Bft)
11.04.2010 18:36 15,8 C 8,8 C 0,5 UV-I 1,3 C 48 % 72 % 37 % 1024,6 hPa 0,0 l/m 8,8 km/h (2 Bft) 0 min 10,0 km/h (2 Bft)
11.04.2010 18:38 15,8 C 8,9 C 0,5 UV-I 1,2 C 48 % 72 % 34 % 1024,6 hPa 0,0 l/m 9,6 km/h (2 Bft) 0 min 15,3 km/h (3 Bft)
11.04.2010 18:40 15,8 C 8,9 C 0,5 UV-I 1,1 C 48 % 72 % 31 % 1024,6 hPa 0,0 l/m 8,4 km/h (2 Bft) 0 min 6,0 km/h (2 Bft)
11.04.2010 18:42 15,8 C 8,9 C 0,5 UV-I 1,0 C 48 % 73 % 29 % 1024,6 hPa 0,0 l/m 8,0 km/h (2 Bft) 0 min 5,6 km/h (1 Bft)
11.04.2010 18:44 15,9 C 8,9 C 0,5 UV-I 0,9 C 48 % 73 % 26 % 1024,6 hPa 0,0 l/m 8,0 km/h (2 Bft) 0 min 9,2 km/h (2 Bft)
11.04.2010 18:46 15,9 C 8,8 C 0,3 UV-I 0,8 C 47 % 73 % 23 % 1024,6 hPa 0,0 l/m 8,4 km/h (2 Bft) 0 min 10,8 km/h (2 Bft)
11.04.2010 18:48 15,9 C 8,8 C 0,3 UV-I 0,7 C 47 % 73 % 20 % 1024,6 hPa 0,0 l/m 8,4 km/h (2 Bft) 0 min 9,6 km/h (2 Bft)
11.04.2010 18:50 15,8 C 8,9 C 0,0 UV-I 0,5 C 47 % 73 % 14 % 1024,6 hPa 0,0 l/m 8,0 km/h (2 Bft) 0 min 10,4 km/h (2 Bft)
11.04.2010 18:52 15,8 C 8,8 C 0,0 UV-I 0,4 C 47 % 73 % 11 % 1024,7 hPa 0,0 l/m 9,6 km/h (2 Bft) 0 min 15,3 km/h (3 Bft)
11.04.2010 18:54 16,0 C 8,7 C 0,0 UV-I 0,5 C 47 % 73 % 14 % 1024,7 hPa 0,0 l/m 9,2 km/h (2 Bft) 0 min 10,4 km/h (2 Bft)
11.04.2010 18:56 16,0 C 8,8 C 0,1 UV-I 0,2 C 47 % 73 % 6 % 1024,7 hPa 0,0 l/m 8,4 km/h (2 Bft) 0 min 8,8 km/h (2 Bft)
11.04.2010 18:58 16,0 C 8,8 C 0,1 UV-I 0,1 C 47 % 73 % 3 % 1024,7 hPa 0,0 l/m 8,0 km/h (2 Bft) 0 min 7,2 km/h (2 Bft)
11.04.2010 19:00 15,8 C 8,7 C 0,1 UV-I 0,2 C 47 % 73 % 6 % 1024,7 hPa 0,0 l/m 7,6 km/h (2 Bft) 0 min 6,4 km/h (2 Bft)
11.04.2010 19:02 16,0 C 8,7 C 0,1 UV-I 0,1 C 47 % 73 % 3 % 1024,7 hPa 0,0 l/m 7,6 km/h (2 Bft) 0 min 8,0 km/h (2 Bft)
11.04.2010 19:04 16,0 C 8,7 C 0,1 UV-I 0,0 C 47 % 73 % 0 % 1024,7 hPa 0,0 l/m 6,4 km/h (2 Bft) 0 min 5,2 km/h (1 Bft)
11.04.2010 19:06 16,0 C 8,6 C 0,0 UV-I 0,0 C 47 % 73 % 0 % 1024,7 hPa 0,0 l/m 6,0 km/h (2 Bft) 0 min 10,8 km/h (2 Bft)
11.04.2010 19:08 16,0 C 8,7 C 0,0 UV-I 0,0 C 47 % 73 % 0 % 1024,7 hPa 0,0 l/m 6,4 km/h (2 Bft) 0 min 12,0 km/h (2 Bft)
11.04.2010 19:10 16,0 C 8,7 C 0,1 UV-I 0,0 C 47 % 73 % 0 % 1024,7 hPa 0,0 l/m 6,8 km/h (2 Bft) 0 min 12,0 km/h (2 Bft)
11.04.2010 19:12 16,0 C 8,6 C 0,1 UV-I 0,0 C 47 % 73 % 0 % 1024,4 hPa 0,0 l/m 6,4 km/h (2 Bft) 0 min 0,0 km/h (0 Bft)
11.04.2010 19:14 16,0 C 8,5 C 0,1 UV-I 0,0 C 47 % 73 % 0 % 1024,4 hPa 0,0 l/m 5,6 km/h (1 Bft) 0 min 8,0 km/h (2 Bft)
11.04.2010 19:16 16,0 C 8,6 C 0,0 UV-I 0,0 C 47 % 73 % 0 % 1024,4 hPa 0,0 l/m 6,0 km/h (2 Bft) 0 min 7,2 km/h (2 Bft)
11.04.2010 19:18 16,0 C 8,7 C 0,0 UV-I 0,0 C 47 % 73 % 0 % 1024,4 hPa 0,0 l/m 6,4 km/h (2 Bft) 0 min 10,8 km/h (2 Bft)
11.04.2010 19:20 16,0 C 8,5 C 0,0 UV-I 0,0 C 47 % 73 % 0 % 1024,4 hPa 0,0 l/m 6,0 km/h (2 Bft) 0 min 6,4 km/h (2 Bft)
11.04.2010 19:22 16,0 C 8,4 C 0,0 UV-I 0,0 C 47 % 73 % 0 % 1024,4 hPa 0,0 l/m 5,2 km/h (1 Bft) 0 min 13,3 km/h (3 Bft)
11.04.2010 19:24 16,0 C 8,4 C 0,0 UV-I 0,0 C 47 % 73 % 0 % 1024,4 hPa 0,0 l/m 6,4 km/h (2 Bft) 0 min 8,8 km/h (2 Bft)
11.04.2010 19:26 16,0 C 8,4 C 0,1 UV-I 0,0 C 47 % 73 % 0 % 1024,4 hPa 0,0 l/m 6,8 km/h (2 Bft) 0 min 7,2 km/h (2 Bft)
11.04.2010 19:28 16,0 C 8,4 C 0,1 UV-I 0,0 C 47 % 73 % 0 % 1024,4 hPa 0,0 l/m 6,4 km/h (2 Bft) 0 min 7,6 km/h (2 Bft)
11.04.2010 19:30 16,0 C 8,4 C 0,0 UV-I 0,0 C 47 % 73 % 0 % 1024,4 hPa 0,0 l/m 5,6 km/h (1 Bft) 0 min 6,4 km/h (2 Bft)
11.04.2010 19:32 16,0 C 8,3 C 0,0 UV-I 0,0 C 47 % 73 % 0 % 1024,8 hPa 0,0 l/m 5,2 km/h (1 Bft) 0 min 4,4 km/h (1 Bft)
11.04.2010 19:34 16,0 C 8,3 C 0,0 UV-I 0,0 C 47 % 73 % 0 % 1024,8 hPa 0,0 l/m 3,6 km/h (1 Bft) 0 min 5,6 km/h (1 Bft)
11.04.2010 19:36 16,0 C 8,4 C 0,0 UV-I 0,0 C 47 % 73 % 0 % 1024,8 hPa 0,0 l/m 3,2 km/h (1 Bft) 0 min 4,8 km/h (1 Bft)
11.04.2010 19:38 16,0 C 8,3 C 0,0 UV-I 0,0 C 47 % 74 % 0 % 1024,8 hPa 0,0 l/m 3,2 km/h (1 Bft) 0 min 5,2 km/h (1 Bft)
11.04.2010 19:40 16,0 C 8,3 C 0,0 UV-I 0,0 C 47 % 73 % 0 % 1024,8 hPa 0,0 l/m 3,6 km/h (1 Bft) 0 min 6,0 km/h (2 Bft)
11.04.2010 19:42 15,8 C 8,2 C 0,0 UV-I 0,0 C 47 % 74 % 0 % 1024,8 hPa 0,0 l/m 3,2 km/h (1 Bft) 0 min 0,0 km/h (0 Bft)
11.04.2010 19:44 15,8 C 8,3 C 0,0 UV-I 0,0 C 47 % 74 % 0 % 1024,8 hPa 0,0 l/m 3,6 km/h (1 Bft) 0 min 4,4 km/h (1 Bft)
11.04.2010 19:46 15,8 C 8,2 C 0,0 UV-I 0,0 C 47 % 74 % 0 % 1024,8 hPa 0,0 l/m 2,8 km/h (1 Bft) 0 min 0,0 km/h (0 Bft)
11.04.2010 19:48 15,8 C 8,3 C 0,0 UV-I 0,0 C 47 % 74 % 0 % 1024,8 hPa 0,0 l/m 2,0 km/h (1 Bft) 0 min 0,0 km/h (0 Bft)
11.04.2010 19:50 15,9 C 8,3 C 0,0 UV-I 0,0 C 47 % 74 % 0 % 1024,8 hPa 0,0 l/m 1,2 km/h (1 Bft) 0 min 0,0 km/h (0 Bft)
11.04.2010 19:52 15,9 C 8,2 C 0,0 UV-I 0,0 C 47 % 74 % 0 % 1024,4 hPa 0,0 l/m 2,0 km/h (1 Bft) 0 min 4,8 km/h (1 Bft)
11.04.2010 19:54 15,9 C 8,1 C 0,0 UV-I 0,0 C 47 % 73 % 0 % 1024,4 hPa 0,0 l/m 2,4 km/h (1 Bft) 0 min 7,6 km/h (2 Bft)
11.04.2010 19:58 15,8 C 8,3 C 0,0 UV-I 0,0 C 47 % 74 % 0 % 1024,4 hPa 0,0 l/m 4,8 km/h (1 Bft) 0 min 8,4 km/h (2 Bft)
11.04.2010 20:00 15,8 C 8,1 C 0,0 UV-I 0,0 C 47 % 74 % 0 % 1024,4 hPa 0,0 l/m 6,0 km/h (2 Bft) 0 min 8,8 km/h (2 Bft)
11.04.2010 20:02 15,8 C 8,2 C 0,0 UV-I 0,0 C 47 % 74 % 0 % 1024,4 hPa 0,0 l/m 6,4 km/h (2 Bft) 0 min 9,2 km/h (2 Bft)
11.04.2010 20:04 15,8 C 8,2 C 0,0 UV-I 0,0 C 47 % 74 % 0 % 1024,4 hPa 0,0 l/m 6,8 km/h (2 Bft) 0 min 12,0 km/h (2 Bft)
11.04.2010 20:06 15,8 C 8,1 C 0,0 UV-I 0,0 C 48 % 74 % 0 % 1024,4 hPa 0,0 l/m 7,6 km/h (2 Bft) 0 min 11,6 km/h (2 Bft)
11.04.2010 20:08 15,8 C 8,1 C 0,0 UV-I 0,0 C 48 % 74 % 0 % 1024,4 hPa 0,0 l/m 7,6 km/h (2 Bft) 0 min 5,6 km/h (1 Bft)
11.04.2010 20:10 15,8 C 8,0 C 0,0 UV-I 0,0 C 47 % 74 % 0 % 1024,4 hPa 0,0 l/m 7,2 km/h (2 Bft) 0 min 8,4 km/h (2 Bft)
11.04.2010 20:12 15,8 C 8,0 C 0,0 UV-I 0,0 C 48 % 74 % 0 % 1024,5 hPa 0,0 l/m 6,0 km/h (2 Bft) 0 min 6,4 km/h (2 Bft)
11.04.2010 20:14 15,8 C 8,1 C 0,0 UV-I 0,0 C 48 % 75 % 0 % 1024,5 hPa 0,0 l/m 5,6 km/h (1 Bft) 0 min 0,0 km/h (0 Bft)
11.04.2010 20:16 15,6 C 8,0 C 0,0 UV-I 0,0 C 48 % 75 % 0 % 1024,5 hPa 0,0 l/m 5,6 km/h (1 Bft) 0 min 6,8 km/h (2 Bft)
11.04.2010 20:18 15,6 C 8,1 C 0,0 UV-I 0,0 C 48 % 75 % 0 % 1024,5 hPa 0,0 l/m 4,4 km/h (1 Bft) 0 min 5,6 km/h (1 Bft)
11.04.2010 20:20 15,6 C 8,0 C 0,0 UV-I 0,0 C 48 % 75 % 0 % 1024,5 hPa 0,0 l/m 4,0 km/h (1 Bft) 0 min 6,0 km/h (2 Bft)
11.04.2010 20:22 15,6 C 8,0 C 0,0 UV-I 0,0 C 48 % 75 % 0 % 1024,5 hPa 0,0 l/m 4,0 km/h (1 Bft) 0 min 0,0 km/h (0 Bft)
11.04.2010 20:24 15,6 C 7,9 C 0,0 UV-I 0,0 C 48 % 75 % 0 % 1024,5 hPa 0,0 l/m 3,2 km/h (1 Bft) 0 min 0,0 km/h (0 Bft)
11.04.2010 20:26 15,6 C 7,9 C 0,0 UV-I 0,0 C 48 % 75 % 0 % 1024,5 hPa 0,0 l/m 2,8 km/h (1 Bft) 0 min 4,4 km/h (1 Bft)
11.04.2010 20:28 15,7 C 7,8 C 0,0 UV-I 0,0 C 48 % 75 % 0 % 1024,5 hPa 0,0 l/m 2,4 km/h (1 Bft) 0 min 0,0 km/h (0 Bft)
11.04.2010 20:30 15,7 C 7,9 C 0,0 UV-I 0,0 C 48 % 76 % 0 % 1024,5 hPa 0,0 l/m 2,4 km/h (1 Bft) 0 min 4,4 km/h (1 Bft)
11.04.2010 20:32 15,7 C 7,9 C 0,0 UV-I 0,0 C 48 % 75 % 0 % 1024,6 hPa 0,0 l/m 2,0 km/h (1 Bft) 0 min 4,4 km/h (1 Bft)
11.04.2010 20:34 15,6 C 7,7 C 0,0 UV-I 0,0 C 48 % 75 % 0 % 1024,6 hPa 0,0 l/m 2,4 km/h (1 Bft) 0 min 6,0 km/h (2 Bft)
11.04.2010 20:36 15,6 C 7,7 C 0,0 UV-I 0,0 C 48 % 75 % 0 % 1024,6 hPa 0,0 l/m 2,4 km/h (1 Bft) 0 min 5,2 km/h (1 Bft)
11.04.2010 20:38 15,6 C 7,7 C 0,0 UV-I 0,0 C 48 % 75 % 0 % 1024,6 hPa 0,0 l/m 2,4 km/h (1 Bft) 0 min 7,6 km/h (2 Bft)
11.04.2010 20:40 15,6 C 7,7 C 0,0 UV-I 0,0 C 48 % 75 % 0 % 1024,6 hPa 0,0 l/m 2,8 km/h (1 Bft) 0 min 4,4 km/h (1 Bft)
11.04.2010 20:42 15,6 C 7,6 C 0,0 UV-I 0,0 C 48 % 75 % 0 % 1024,6 hPa 0,0 l/m 2,4 km/h (1 Bft) 0 min 0,0 km/h (0 Bft)
11.04.2010 20:44 15,6 C 7,6 C 0,0 UV-I 0,0 C 48 % 75 % 0 % 1024,6 hPa 0,0 l/m 2,0 km/h (1 Bft) 0 min 0,0 km/h (0 Bft)
11.04.2010 20:46 15,6 C 7,7 C 0,0 UV-I 0,0 C 48 % 75 % 0 % 1024,6 hPa 0,0 l/m 1,2 km/h (1 Bft) 0 min 4,0 km/h (1 Bft)
11.04.2010 20:48 15,6 C 7,6 C 0,0 UV-I 0,0 C 48 % 75 % 0 % 1024,6 hPa 0,0 l/m 0,8 km/h (0 Bft) 0 min 0,0 km/h (0 Bft)
11.04.2010 20:54 15,6 C 7,4 C 0,0 UV-I 0,0 C 48 % 75 % 0 % 1024,7 hPa 0,0 l/m 0,8 km/h (0 Bft) 0 min 0,0 km/h (0 Bft)
11.04.2010 20:56 15,6 C 7,5 C 0,0 UV-I 0,0 C 48 % 75 % 0 % 1024,7 hPa 0,0 l/m 0,8 km/h (0 Bft) 0 min 0,0 km/h (0 Bft)
11.04.2010 20:58 15,6 C 7,4 C 0,0 UV-I 0,0 C 48 % 75 % 0 % 1024,7 hPa 0,0 l/m 0,4 km/h (0 Bft) 0 min 0,0 km/h (0 Bft)
11.04.2010 21:00 15,6 C 7,3 C 0,0 UV-I 0,0 C 48 % 75 % 0 % 1024,7 hPa 0,0 l/m 0,4 km/h (0 Bft) 0 min 0,0 km/h (0 Bft)
11.04.2010 21:02 15,4 C 7,3 C 0,0 UV-I 0,0 C 48 % 75 % 0 % 1024,7 hPa 0,0 l/m 0,4 km/h (0 Bft) 0 min 4,0 km/h (1 Bft)
11.04.2010 21:04 15,4 C 7,2 C 0,0 UV-I 0,0 C 48 % 75 % 0 % 1024,7 hPa 0,0 l/m 0,8 km/h (0 Bft) 0 min 4,4 km/h (1 Bft)
11.04.2010 21:06 15,4 C 7,3 C 0,0 UV-I 0,0 C 48 % 75 % 0 % 1024,7 hPa 0,0 l/m 0,8 km/h (0 Bft) 0 min 0,0 km/h (0 Bft)
11.04.2010 21:08 15,4 C 7,2 C 0,0 UV-I 0,0 C 48 % 75 % 0 % 1024,7 hPa 0,0 l/m 1,2 km/h (1 Bft) 0 min 4,4 km/h (1 Bft)
11.04.2010 21:10 15,5 C 7,2 C 0,0 UV-I 0,0 C 48 % 76 % 0 % 1024,7 hPa 0,0 l/m 1,6 km/h (1 Bft) 0 min 5,2 km/h (1 Bft)
11.04.2010 21:12 15,5 C 7,1 C 0,0 UV-I 0,0 C 48 % 75 % 0 % 1024,9 hPa 0,0 l/m 2,8 km/h (1 Bft) 0 min 6,0 km/h (2 Bft)
11.04.2010 21:14 15,5 C 7,1 C 0,0 UV-I 0,0 C 48 % 75 % 0 % 1024,9 hPa 0,0 l/m 3,2 km/h (1 Bft) 0 min 4,0 km/h (1 Bft)
11.04.2010 21:16 15,5 C 7,0 C 0,0 UV-I 0,0 C 48 % 75 % 0 % 1024,9 hPa 0,0 l/m 3,6 km/h (1 Bft) 0 min 8,8 km/h (2 Bft)
11.04.2010 21:18 15,3 C 7,1 C 0,0 UV-I 0,0 C 48 % 75 % 0 % 1024,9 hPa 0,0 l/m 4,4 km/h (1 Bft) 0 min 7,2 km/h (2 Bft)
11.04.2010 21:20 15,3 C 7,0 C 0,0 UV-I 0,0 C 48 % 76 % 0 % 1024,9 hPa 0,0 l/m 4,8 km/h (1 Bft) 0 min 8,0 km/h (2 Bft)
11.04.2010 21:22 15,3 C 6,9 C 0,0 UV-I 0,0 C 49 % 76 % 0 % 1024,9 hPa 0,0 l/m 5,2 km/h (1 Bft) 0 min 9,2 km/h (2 Bft)
11.04.2010 21:24 15,3 C 6,9 C 0,0 UV-I 0,0 C 49 % 76 % 0 % 1024,9 hPa 0,0 l/m 5,2 km/h (1 Bft) 0 min 7,2 km/h (2 Bft)
11.04.2010 21:26 15,4 C 6,8 C 0,0 UV-I 0,0 C 49 % 76 % 0 % 1024,9 hPa 0,0 l/m 5,6 km/h (1 Bft) 0 min 6,0 km/h (2 Bft)
11.04.2010 21:28 15,4 C 6,9 C 0,0 UV-I 0,0 C 49 % 76 % 0 % 1024,9 hPa 0,0 l/m 5,6 km/h (1 Bft) 0 min 4,4 km/h (1 Bft)
11.04.2010 21:30 15,4 C 6,8 C 0,0 UV-I 0,0 C 49 % 77 % 0 % 1024,9 hPa 0,0 l/m 5,2 km/h (1 Bft) 0 min 0,0 km/h (0 Bft)
11.04.2010 21:32 15,4 C 6,7 C 0,0 UV-I 0,0 C 49 % 77 % 0 % 1025,1 hPa 0,0 l/m 4,0 km/h (1 Bft) 0 min 0,0 km/h (0 Bft)
11.04.2010 21:34 15,4 C 6,7 C 0,0 UV-I 0,0 C 49 % 77 % 0 % 1025,1 hPa 0,0 l/m 3,2 km/h (1 Bft) 0 min 0,0 km/h (0 Bft)
11.04.2010 21:36 15,4 C 6,6 C 0,0 UV-I 0,0 C 49 % 77 % 0 % 1025,1 hPa 0,0 l/m 3,2 km/h (1 Bft) 0 min 4,8 km/h (1 Bft)
11.04.2010 21:38 15,4 C 6,7 C 0,0 UV-I 0,0 C 49 % 77 % 0 % 1025,1 hPa 0,0 l/m 3,6 km/h (1 Bft) 0 min 6,8 km/h (2 Bft)
11.04.2010 21:42 15,2 C 6,5 C 0,0 UV-I 0,0 C 49 % 78 % 0 % 1025,1 hPa 0,0 l/m 4,4 km/h (1 Bft) 0 min 8,0 km/h (2 Bft)
11.04.2010 21:44 15,4 C 6,4 C 0,0 UV-I 0,0 C 49 % 78 % 0 % 1025,1 hPa 0,0 l/m 5,6 km/h (1 Bft) 0 min 12,8 km/h (3 Bft)
11.04.2010 21:46 15,2 C 6,4 C 0,0 UV-I 0,0 C 49 % 79 % 0 % 1025,1 hPa 0,0 l/m 6,8 km/h (2 Bft) 0 min 8,8 km/h (2 Bft)
11.04.2010 21:48 15,2 C 6,5 C 0,0 UV-I 0,0 C 49 % 79 % 0 % 1025,1 hPa 0,0 l/m 7,2 km/h (2 Bft) 0 min 9,6 km/h (2 Bft)
11.04.2010 21:50 15,2 C 6,4 C 0,0 UV-I 0,0 C 49 % 79 % 0 % 1025,1 hPa 0,0 l/m 7,2 km/h (2 Bft) 0 min 7,2 km/h (2 Bft)
11.04.2010 21:52 15,2 C 6,4 C 0,0 UV-I 0,0 C 49 % 79 % 0 % 1024,8 hPa 0,0 l/m 6,4 km/h (2 Bft) 0 min 7,6 km/h (2 Bft)
11.04.2010 21:54 15,2 C 6,3 C 0,0 UV-I 0,0 C 49 % 79 % 0 % 1024,8 hPa 0,0 l/m 6,0 km/h (2 Bft) 0 min 5,2 km/h (1 Bft)
11.04.2010 21:56 15,2 C 6,3 C 0,0 UV-I 0,0 C 49 % 79 % 0 % 1024,8 hPa 0,0 l/m 5,2 km/h (1 Bft) 0 min 0,0 km/h (0 Bft)
11.04.2010 21:58 15,2 C 6,2 C 0,0 UV-I 0,0 C 49 % 80 % 0 % 1024,8 hPa 0,0 l/m 4,4 km/h (1 Bft) 0 min 4,4 km/h (1 Bft)
11.04.2010 22:02 15,2 C 6,2 C 0,0 UV-I 0,0 C 49 % 80 % 0 % 1024,8 hPa 0,0 l/m 4,4 km/h (1 Bft) 0 min 5,6 km/h (1 Bft)
11.04.2010 22:04 15,3 C 6,1 C 0,0 UV-I 0,0 C 49 % 80 % 0 % 1024,8 hPa 0,0 l/m 4,4 km/h (1 Bft) 0 min 5,2 km/h (1 Bft)
11.04.2010 22:06 15,1 C 6,1 C 0,0 UV-I 0,0 C 49 % 80 % 0 % 1024,8 hPa 0,0 l/m 4,0 km/h (1 Bft) 0 min 6,8 km/h (2 Bft)
11.04.2010 22:08 15,3 C 6,0 C 0,0 UV-I 0,0 C 49 % 80 % 0 % 1024,8 hPa 0,0 l/m 3,6 km/h (1 Bft) 0 min 0,0 km/h (0 Bft)
11.04.2010 22:10 15,3 C 6,0 C 0,0 UV-I 0,0 C 49 % 80 % 0 % 1024,8 hPa 0,0 l/m 3,2 km/h (1 Bft) 0 min 4,4 km/h (1 Bft)
11.04.2010 22:12 15,1 C 6,1 C 0,0 UV-I 0,0 C 49 % 80 % 0 % 1025,2 hPa 0,0 l/m 2,8 km/h (1 Bft) 0 min 0,0 km/h (0 Bft)
11.04.2010 22:14 15,1 C 6,0 C 0,0 UV-I 0,0 C 49 % 80 % 0 % 1025,2 hPa 0,0 l/m 2,0 km/h (1 Bft) 0 min 0,0 km/h (0 Bft)
11.04.2010 22:16 15,1 C 6,0 C 0,0 UV-I 0,0 C 49 % 81 % 0 % 1025,2 hPa 0,0 l/m 2,0 km/h (1 Bft) 0 min 6,4 km/h (2 Bft)
11.04.2010 22:18 15,1 C 6,0 C 0,0 UV-I 0,0 C 49 % 81 % 0 % 1025,2 hPa 0,0 l/m 1,6 km/h (1 Bft) 0 min 0,0 km/h (0 Bft)
11.04.2010 22:20 15,1 C 5,9 C 0,0 UV-I 0,0 C 49 % 81 % 0 % 1025,2 hPa 0,0 l/m 1,2 km/h (1 Bft) 0 min 6,0 km/h (2 Bft)
11.04.2010 22:24 15,1 C 5,9 C 0,0 UV-I 0,0 C 49 % 81 % 0 % 1025,2 hPa 0,0 l/m 1,6 km/h (1 Bft) 0 min 4,0 km/h (1 Bft)
11.04.2010 22:26 15,1 C 5,9 C 0,0 UV-I 0,0 C 49 % 81 % 0 % 1025,2 hPa 0,0 l/m 2,0 km/h (1 Bft) 0 min 6,4 km/h (2 Bft)
11.04.2010 22:28 15,1 C 5,9 C 0,0 UV-I 0,0 C 49 % 81 % 0 % 1025,2 hPa 0,0 l/m 2,4 km/h (1 Bft) 0 min 10,8 km/h (2 Bft)
11.04.2010 22:30 15,2 C 5,9 C 0,0 UV-I 0,0 C 49 % 81 % 0 % 1025,2 hPa 0,0 l/m 2,8 km/h (1 Bft) 0 min 0,0 km/h (0 Bft)
11.04.2010 22:32 15,1 C 5,9 C 0,0 UV-I 0,0 C 49 % 81 % 0 % 1025,1 hPa 0,0 l/m 2,8 km/h (1 Bft) 0 min 4,4 km/h (1 Bft)
11.04.2010 22:34 15,2 C 5,8 C 0,0 UV-I 0,0 C 49 % 81 % 0 % 1025,1 hPa 0,0 l/m 2,4 km/h (1 Bft) 0 min 4,4 km/h (1 Bft)
11.04.2010 22:36 15,2 C 5,9 C 0,0 UV-I 0,0 C 49 % 81 % 0 % 1025,1 hPa 0,0 l/m 2,4 km/h (1 Bft) 0 min 0,0 km/h (0 Bft)
11.04.2010 22:38 15,2 C 5,8 C 0,0 UV-I 0,0 C 49 % 81 % 0 % 1025,1 hPa 0,0 l/m 1,6 km/h (1 Bft) 0 min 0,0 km/h (0 Bft)
11.04.2010 22:40 15,2 C 5,9 C 0,0 UV-I 0,0 C 49 % 81 % 0 % 1025,1 hPa 0,0 l/m 1,2 km/h (1 Bft) 0 min 4,8 km/h (1 Bft)
11.04.2010 22:42 15,2 C 5,9 C 0,0 UV-I 0,0 C 49 % 82 % 0 % 1025,1 hPa 0,0 l/m 1,6 km/h (1 Bft) 0 min 0,0 km/h (0 Bft)
11.04.2010 22:44 15,2 C 5,9 C 0,0 UV-I 0,0 C 49 % 82 % 0 % 1025,1 hPa 0,0 l/m 1,2 km/h (1 Bft) 0 min 0,0 km/h (0 Bft)
11.04.2010 22:46 15,2 C 5,9 C 0,0 UV-I 0,0 C 49 % 82 % 0 % 1025,1 hPa 0,0 l/m 1,2 km/h (1 Bft) 0 min 0,0 km/h (0 Bft)
11.04.2010 22:48 15,2 C 5,9 C 0,0 UV-I 0,0 C 49 % 82 % 0 % 1025,1 hPa 0,0 l/m 0,8 km/h (0 Bft) 0 min 4,0 km/h (1 Bft)
11.04.2010 22:50 15,2 C 5,9 C 0,0 UV-I 0,0 C 50 % 82 % 0 % 1025,1 hPa 0,0 l/m 1,2 km/h (1 Bft) 0 min 4,4 km/h (1 Bft)
11.04.2010 22:52 15,2 C 5,9 C 0,0 UV-I 0,0 C 50 % 82 % 0 % 1025,0 hPa 0,0 l/m 0,8 km/h (0 Bft) 0 min 0,0 km/h (0 Bft)
11.04.2010 22:54 15,2 C 5,8 C 0,0 UV-I 0,0 C 50 % 82 % 0 % 1025,0 hPa 0,0 l/m 0,8 km/h (0 Bft) 0 min 0,0 km/h (0 Bft)
11.04.2010 22:56 15,2 C 5,8 C 0,0 UV-I 0,0 C 50 % 82 % 0 % 1025,0 hPa 0,0 l/m 0,8 km/h (0 Bft) 0 min 4,0 km/h (1 Bft)
11.04.2010 22:58 15,2 C 5,8 C 0,0 UV-I 0,0 C 50 % 82 % 0 % 1025,0 hPa 0,0 l/m 1,2 km/h (1 Bft) 0 min 5,2 km/h (1 Bft)
11.04.2010 23:00 15,2 C 5,8 C 0,0 UV-I 0,0 C 50 % 82 % 0 % 1025,0 hPa 0,0 l/m 0,8 km/h (0 Bft) 0 min 0,0 km/h (0 Bft)
11.04.2010 23:02 15,2 C 5,8 C 0,0 UV-I 0,0 C 50 % 82 % 0 % 1025,0 hPa 0,0 l/m 0,8 km/h (0 Bft) 0 min 0,0 km/h (0 Bft)
11.04.2010 23:04 15,2 C 5,7 C 0,0 UV-I 0,0 C 50 % 82 % 0 % 1025,0 hPa 0,0 l/m 0,8 km/h (0 Bft) 0 min 0,0 km/h (0 Bft)
11.04.2010 23:06 15,2 C 5,7 C 0,0 UV-I 0,0 C 50 % 82 % 0 % 1025,0 hPa 0,0 l/m 0,8 km/h (0 Bft) 0 min 4,0 km/h (1 Bft)
11.04.2010 23:10 15,2 C 5,7 C 0,0 UV-I 0,0 C 50 % 82 % 0 % 1025,0 hPa 0,0 l/m 0,8 km/h (0 Bft) 0 min 4,0 km/h (1 Bft)
11.04.2010 23:12 15,2 C 5,7 C 0,0 UV-I 0,0 C 50 % 82 % 0 % 1025,0 hPa 0,0 l/m 0,4 km/h (0 Bft) 0 min 0,0 km/h (0 Bft)
11.04.2010 23:14 15,2 C 5,7 C 0,0 UV-I 0,0 C 50 % 82 % 0 % 1025,0 hPa 0,0 l/m 0,4 km/h (0 Bft) 0 min 0,0 km/h (0 Bft)
11.04.2010 23:16 15,2 C 5,7 C 0,0 UV-I 0,0 C 50 % 82 % 0 % 1025,0 hPa 0,0 l/m 0,8 km/h (0 Bft) 0 min 4,0 km/h (1 Bft)
11.04.2010 23:18 15,1 C 5,7 C 0,0 UV-I 0,0 C 50 % 83 % 0 % 1025,0 hPa 0,0 l/m 0,8 km/h (0 Bft) 0 min 0,0 km/h (0 Bft)
11.04.2010 23:20 15,1 C 5,7 C 0,0 UV-I 0,0 C 50 % 82 % 0 % 1025,0 hPa 0,0 l/m 0,8 km/h (0 Bft) 0 min 4,4 km/h (1 Bft)
11.04.2010 23:22 15,1 C 5,7 C 0,0 UV-I 0,0 C 50 % 83 % 0 % 1025,0 hPa 0,0 l/m 0,8 km/h (0 Bft) 0 min 0,0 km/h (0 Bft)
11.04.2010 23:24 15,1 C 5,6 C 0,0 UV-I 0,0 C 50 % 83 % 0 % 1025,0 hPa 0,0 l/m 0,8 km/h (0 Bft) 0 min 0,0 km/h (0 Bft)
11.04.2010 23:26 15,1 C 5,7 C 0,0 UV-I 0,0 C 50 % 83 % 0 % 1025,0 hPa 0,0 l/m 0,8 km/h (0 Bft) 0 min 0,0 km/h (0 Bft)
11.04.2010 23:28 15,1 C 5,6 C 0,0 UV-I 0,0 C 50 % 83 % 0 % 1025,0 hPa 0,0 l/m 0,4 km/h (0 Bft) 0 min 0,0 km/h (0 Bft)
11.04.2010 23:30 15,1 C 5,6 C 0,0 UV-I 0,0 C 50 % 83 % 0 % 1025,0 hPa 0,0 l/m 0,4 km/h (0 Bft) 0 min 5,2 km/h (1 Bft)
11.04.2010 23:32 15,1 C 5,6 C 0,0 UV-I 0,0 C 50 % 83 % 0 % 1025,2 hPa 0,0 l/m 1,6 km/h (1 Bft) 0 min 4,8 km/h (1 Bft)
11.04.2010 23:34 15,1 C 5,6 C 0,0 UV-I 0,0 C 50 % 83 % 0 % 1025,2 hPa 0,0 l/m 2,4 km/h (1 Bft) 0 min 6,0 km/h (2 Bft)
11.04.2010 23:36 15,1 C 5,6 C 0,0 UV-I 0,0 C 50 % 83 % 0 % 1025,2 hPa 0,0 l/m 2,8 km/h (1 Bft) 0 min 8,4 km/h (2 Bft)
11.04.2010 23:38 15,1 C 5,6 C 0,0 UV-I 0,0 C 50 % 83 % 0 % 1025,2 hPa 0,0 l/m 4,0 km/h (1 Bft) 0 min 9,2 km/h (2 Bft)
11.04.2010 23:40 15,1 C 5,7 C 0,0 UV-I 0,0 C 50 % 83 % 0 % 1025,2 hPa 0,0 l/m 4,0 km/h (1 Bft) 0 min 0,0 km/h (0 Bft)
11.04.2010 23:42 15,1 C 5,6 C 0,0 UV-I 0,0 C 50 % 83 % 0 % 1025,2 hPa 0,0 l/m 3,2 km/h (1 Bft) 0 min 0,0 km/h (0 Bft)
11.04.2010 23:44 15,1 C 5,7 C 0,0 UV-I 0,0 C 50 % 83 % 0 % 1025,2 hPa 0,0 l/m 2,8 km/h (1 Bft) 0 min 4,4 km/h (1 Bft)
11.04.2010 23:46 15,1 C 5,7 C 0,0 UV-I 0,0 C 50 % 83 % 0 % 1025,2 hPa 0,0 l/m 2,8 km/h (1 Bft) 0 min 4,8 km/h (1 Bft)
11.04.2010 23:48 15,1 C 5,7 C 0,0 UV-I 0,0 C 50 % 83 % 0 % 1025,2 hPa 0,0 l/m 2,8 km/h (1 Bft) 0 min 4,8 km/h (1 Bft)
11.04.2010 23:50 15,1 C 5,7 C 0,0 UV-I 0,0 C 50 % 83 % 0 % 1025,2 hPa 0,0 l/m 2,0 km/h (1 Bft) 0 min 4,0 km/h (1 Bft)
11.04.2010 23:52 15,1 C 5,7 C 0,0 UV-I 0,0 C 50 % 83 % 0 % 1024,9 hPa 0,0 l/m 2,4 km/h (1 Bft) 0 min 10,0 km/h (2 Bft)
11.04.2010 23:54 15,1 C 5,7 C 0,0 UV-I 0,0 C 50 % 83 % 0 % 1024,9 hPa 0,0 l/m 3,2 km/h (1 Bft) 0 min 7,6 km/h (2 Bft)
11.04.2010 23:56 15,1 C 5,7 C 0,0 UV-I 0,0 C 50 % 83 % 0 % 1024,9 hPa 0,0 l/m 2,8 km/h (1 Bft) 0 min 4,0 km/h (1 Bft)
11.04.2010 23:58 15,1 C 5,7 C 0,0 UV-I 0,0 C 50 % 83 % 0 % 1024,9 hPa 0,0 l/m 2,8 km/h (1 Bft) 0 min 4,4 km/h (1 Bft)
_ Min-Zeit 07:54 06:42 00:00 00:00 15:32 14:26 00:00 16:52 - 00:00 - 00:00
Minimum _ 14,6 C 2,0 C 0,0 UV-I 0,0 C 46 % 61 % 0 % 1024,4 hPa - 0,0 km/h (0 Bft) - 0,0 km/h (0 Bft)
_ Max-Zeit 00:04 15:22 11:46 11:08 07:08 08:42 10:04 00:32 00:00 10:22 10:04 10:20
Maximum _ 16,0 C 10,7 C 6,9 UV-I 7,1 C 50 % 92 % 100 % 1029,2 hPa 0,0 l/m 12,0 km/h
S-SW (2 Bft)
2 min 30,1 km/h
S (5 Bft)
Durchschnitt _ 15,4 C 6,3 C 0,5 UV-I 0,8 C 48 % 78 % 18 % 1026,2 hPa #0,0 l/m 4,3 km/h (1 Bft) #1:48 h 6,1 km/h (2 Bft)
© 2012 W. Hausmann